| time (UTC) | temp C | wind direction | speed KPH | gust KPH | rain 1hr cm | rain 24hr cm | rain mn cm | humidity % | barometer mb |
| 20260507180752 | 20 | 15 | 0.0 | 0.0 | 0.00 | 0.51 | 0.23 | 84 | 1009.1 |
| 20260507180653 | 20 | 344 | 0.0 | 0.0 | 0.00 | 0.51 | 0.23 | 84 | 1009.2 |
| 20260507180552 | 20 | 41 | 0.0 | 0.0 | 0.00 | 0.51 | 0.23 | 84 | 1009.1 |
| 20260507180451 | 20 | 27 | 0.0 | 0.0 | 0.00 | 0.51 | 0.23 | 84 | 1009.2 |
| 20260507180350 | 20 | 331 | 0.0 | 0.0 | 0.00 | 0.51 | 0.23 | 84 | 1009.1 |
| 20260507180249 | 20 | 315 | 0.0 | 0.0 | 0.00 | 0.51 | 0.23 | 83 | 1009.0 |
| 20260507180139 | 20 | 294 | 0.0 | 0.0 | 0.00 | 0.51 | 0.23 | 83 | 1008.9 |
| 20260507180038 | 20 | 273 | 0.0 | 0.0 | 0.00 | 0.51 | 0.23 | 83 | 1009.0 |
| 20260507175938 | 20 | 273 | 0.0 | 0.0 | 0.00 | 0.51 | 0.23 | 84 | 1008.9 |
| 20260507175837 | 20 | 263 | 0.0 | 0.0 | 0.00 | 0.51 | 0.23 | 85 | 1009.0 |
| 20260507175735 | 20 | 53 | 0.0 | 0.0 | 0.00 | 0.51 | 0.23 | 84 | 1009.0 |
| 20260507175631 | 20 | 53 | 0.0 | 0.0 | 0.00 | 0.51 | 0.23 | 83 | 1008.9 |
| 20260507175529 | 20 | 5 | 0.0 | 0.0 | 0.00 | 0.51 | 0.23 | 84 | 1008.8 |
| 20260507175427 | 20 | 57 | 0.0 | 0.0 | 0.00 | 0.51 | 0.23 | 83 | 1008.8 |
| 20260507175328 | 20 | 93 | 0.0 | 0.0 | 0.00 | 0.51 | 0.23 | 83 | 1008.8 |
| 20260507175228 | 20 | 94 | 0.0 | 0.0 | 0.00 | 0.51 | 0.23 | 83 | 1008.8 |
| 20260507175122 | 20 | 103 | 0.0 | 0.0 | 0.00 | 0.51 | 0.23 | 83 | 1008.8 |
| 20260507175023 | 20 | 101 | 0.0 | 0.0 | 0.00 | 0.51 | 0.23 | 83 | 1008.6 |
| 20260507174922 | 20 | 115 | 0.0 | 0.0 | 0.00 | 0.51 | 0.23 | 83 | 1008.8 |
| 20260507174823 | 20 | 103 | 0.0 | 0.0 | 0.00 | 0.51 | 0.23 | 82 | 1008.8 |
| 20260507174722 | 21 | 90 | 0.0 | 0.0 | 0.00 | 0.51 | 0.23 | 82 | 1008.8 |
| 20260507174613 | 21 | 102 | 0.0 | 0.0 | 0.00 | 0.51 | 0.23 | 82 | 1008.9 |
| 20260507174513 | 21 | 96 | 0.0 | 0.0 | 0.00 | 0.51 | 0.23 | 81 | 1008.9 |
| 20260507174414 | 21 | 92 | 0.0 | 0.0 | 0.00 | 0.51 | 0.23 | 81 | 1008.9 |
| 20260507174315 | 21 | 97 | 0.0 | 0.0 | 0.00 | 0.51 | 0.23 | 81 | 1008.9 |
| 20260507174212 | 21 | 114 | 0.0 | 0.0 | 0.00 | 0.51 | 0.23 | 81 | 1008.9 |
| 20260507174107 | 21 | 106 | 0.0 | 0.0 | 0.00 | 0.51 | 0.23 | 82 | 1009.0 |
| 20260507174007 | 21 | 89 | 0.0 | 0.0 | 0.00 | 0.51 | 0.23 | 81 | 1009.1 |
| 20260507173907 | 21 | 86 | 0.0 | 0.0 | 0.00 | 0.51 | 0.23 | 80 | 1009.1 |
| 20260507173805 | 21 | 86 | 0.0 | 0.0 | 0.00 | 0.51 | 0.23 | 80 | 1009.2 |
| 20260507173707 | 21 | 92 | 0.0 | 0.0 | 0.00 | 0.51 | 0.23 | 80 | 1009.2 |
| 20260507173559 | 21 | 154 | 0.0 | 0.0 | 0.00 | 0.51 | 0.23 | 81 | 1009.2 |
| 20260507173501 | 21 | 97 | 0.0 | 0.0 | 0.00 | 0.51 | 0.23 | 81 | 1009.1 |
| 20260507173400 | 21 | 88 | 0.0 | 0.0 | 0.00 | 0.51 | 0.23 | 81 | 1009.1 |
| 20260507173259 | 21 | 78 | 0.0 | 0.0 | 0.00 | 0.51 | 0.23 | 80 | 1009.1 |
| 20260507173201 | 21 | 80 | 0.0 | 0.0 | 0.00 | 0.51 | 0.23 | 80 | 1009.0 |
| 20260507173056 | 21 | 77 | 0.0 | 0.0 | 0.00 | 0.51 | 0.23 | 79 | 1009.1 |
| 20260507172955 | 21 | 80 | 0.0 | 0.0 | 0.00 | 0.51 | 0.23 | 79 | 1009.1 |
| 20260507172853 | 21 | 85 | 0.0 | 0.0 | 0.00 | 0.51 | 0.23 | 79 | 1009.0 |
| 20260507172752 | 21 | 92 | 0.0 | 0.0 | 0.00 | 0.51 | 0.23 | 79 | 1009.0 |
| 20260507172650 | 21 | 83 | 0.0 | 0.0 | 0.00 | 0.51 | 0.23 | 79 | 1009.1 |
| 20260507172547 | 21 | 122 | 0.0 | 0.0 | 0.00 | 0.51 | 0.23 | 80 | 1009.1 |
| 20260507172345 | 21 | 124 | 0.0 | 0.0 | 0.00 | 0.51 | 0.23 | 80 | 1009.2 |
| 20260507172244 | 21 | 124 | 0.0 | 0.0 | 0.00 | 0.51 | 0.23 | 80 | 1009.2 |
| 20260507172144 | 21 | 128 | 0.0 | 0.0 | 0.00 | 0.51 | 0.23 | 79 | 1009.3 |
| 20260507172040 | 21 | 117 | 0.0 | 0.0 | 0.00 | 0.51 | 0.23 | 80 | 1009.3 |
| 20260507171938 | 21 | 115 | 0.0 | 0.0 | 0.00 | 0.51 | 0.23 | 80 | 1009.3 |
| 20260507171838 | 21 | 121 | 0.0 | 0.0 | 0.00 | 0.51 | 0.23 | 79 | 1009.2 |
| 20260507171738 | 21 | 126 | 0.0 | 0.0 | 0.00 | 0.51 | 0.23 | 79 | 1009.3 |
| 20260507171638 | 21 | 63 | 0.0 | 0.0 | 0.00 | 0.51 | 0.23 | 80 | 1009.3 |
| 20260507171529 | 21 | 61 | 0.0 | 0.0 | 0.00 | 0.51 | 0.23 | 79 | 1009.3 |
| 20260507171430 | 21 | 61 | 0.0 | 0.0 | 0.00 | 0.51 | 0.23 | 79 | 1009.4 |
| 20260507171331 | 21 | 61 | 0.0 | 0.0 | 0.00 | 0.51 | 0.23 | 80 | 1009.4 |
| 20260507171230 | 21 | 61 | 0.0 | 0.0 | 0.00 | 0.51 | 0.23 | 80 | 1009.3 |
| 20260507171129 | 21 | 109 | 0.0 | 0.0 | 0.00 | 0.51 | 0.23 | 80 | 1009.3 |
| 20260507171025 | 21 | 74 | 0.0 | 0.0 | 0.00 | 0.53 | 0.23 | 80 | 1009.3 |
| 20260507170923 | 21 | 71 | 0.0 | 0.0 | 0.00 | 0.53 | 0.23 | 79 | 1009.2 |
| 20260507170821 | 21 | 69 | 0.0 | 0.0 | 0.00 | 0.53 | 0.23 | 78 | 1009.2 |
| 20260507170723 | 21 | 69 | 0.0 | 0.0 | 0.00 | 0.53 | 0.23 | 79 | 1009.3 |
| 20260507170622 | 21 | 59 | 0.0 | 0.0 | 0.00 | 0.53 | 0.23 | 80 | 1009.2 |
| 20260507170518 | 21 | 55 | 0.0 | 0.0 | 0.00 | 0.53 | 0.23 | 79 | 1009.4 |
| 20260507170415 | 21 | 51 | 0.0 | 0.0 | 0.00 | 0.53 | 0.23 | 78 | 1009.3 |
| 20260507170317 | 21 | 51 | 0.0 | 0.0 | 0.00 | 0.53 | 0.23 | 79 | 1009.4 |
| 20260507170215 | 21 | 51 | 0.0 | 0.0 | 0.00 | 0.53 | 0.23 | 78 | 1009.4 |
| 20260507170116 | 21 | 46 | 0.0 | 0.0 | 0.00 | 0.53 | 0.23 | 78 | 1009.4 |
| 20260507170005 | 21 | 45 | 0.0 | 0.0 | 0.00 | 0.53 | 0.23 | 79 | 1009.3 |
| 20260507165906 | 21 | 42 | 0.0 | 0.0 | 0.00 | 0.53 | 0.23 | 79 | 1009.3 |
| 20260507165807 | 21 | 277 | 0.0 | 0.0 | 0.00 | 0.56 | 0.23 | 79 | 1009.4 |
| 20260507165705 | 21 | 270 | 0.0 | 0.0 | 0.00 | 0.56 | 0.23 | 80 | 1009.4 |
| 20260507165607 | 21 | 202 | 0.0 | 0.0 | 0.00 | 0.56 | 0.23 | 81 | 1009.4 |
| 20260507165500 | 21 | 202 | 0.0 | 0.0 | 0.00 | 0.56 | 0.23 | 80 | 1009.5 |
| 20260507165401 | 21 | 202 | 0.0 | 0.0 | 0.00 | 0.56 | 0.23 | 80 | 1009.4 |
| 20260507165301 | 21 | 203 | 0.0 | 0.0 | 0.00 | 0.56 | 0.23 | 79 | 1009.4 |
| 20260507165201 | 21 | 278 | 0.0 | 0.0 | 0.00 | 0.56 | 0.23 | 79 | 1009.5 |
| 20260507165100 | 21 | 275 | 0.0 | 0.0 | 0.00 | 0.56 | 0.23 | 79 | 1009.6 |
| 20260507164957 | 21 | 252 | 0.0 | 0.0 | 0.00 | 0.56 | 0.23 | 80 | 1009.7 |
| 20260507164854 | 21 | 260 | 0.0 | 0.0 | 0.00 | 0.56 | 0.23 | 81 | 1009.6 |
| 20260507164753 | 21 | 260 | 0.0 | 0.0 | 0.00 | 0.56 | 0.23 | 80 | 1009.6 |
| 20260507164653 | 21 | 171 | 0.0 | 0.0 | 0.00 | 0.56 | 0.23 | 81 | 1009.7 |
| 20260507164555 | 21 | 171 | 0.0 | 0.0 | 0.00 | 0.56 | 0.23 | 80 | 1009.6 |
| 20260507164446 | 21 | 222 | 0.0 | 0.0 | 0.00 | 0.56 | 0.23 | 79 | 1009.5 |
| 20260507164345 | 21 | 275 | 0.0 | 0.0 | 0.00 | 0.56 | 0.23 | 79 | 1009.6 |
| 20260507164245 | 21 | 276 | 0.0 | 0.0 | 0.00 | 0.56 | 0.23 | 79 | 1009.6 |
| 20260507164144 | 21 | 310 | 0.0 | 0.0 | 0.00 | 0.56 | 0.23 | 79 | 1009.6 |
| 20260507164045 | 21 | 230 | 0.0 | 0.0 | 0.00 | 0.56 | 0.23 | 80 | 1009.6 |
| 20260507163940 | 21 | 293 | 0.0 | 0.0 | 0.00 | 0.56 | 0.23 | 79 | 1009.6 |
| 20260507163839 | 21 | 291 | 0.0 | 0.0 | 0.00 | 0.56 | 0.23 | 79 | 1009.7 |
| 20260507163738 | 21 | 312 | 0.0 | 0.0 | 0.00 | 0.56 | 0.23 | 79 | 1009.6 |
| 20260507163637 | 21 | 240 | 0.0 | 0.0 | 0.00 | 0.56 | 0.23 | 79 | 1009.7 |
| 20260507163538 | 21 | 165 | 0.0 | 0.0 | 0.00 | 0.58 | 0.23 | 79 | 1009.6 |
| 20260507163435 | 21 | 175 | 0.0 | 0.0 | 0.00 | 0.58 | 0.23 | 81 | 1009.6 |
| 20260507163331 | 21 | 134 | 0.0 | 0.0 | 0.00 | 0.58 | 0.23 | 79 | 1009.6 |
| 20260507163232 | 20 | 134 | 0.0 | 0.0 | 0.00 | 0.58 | 0.23 | 80 | 1009.7 |
| 20260507163132 | 20 | 133 | 0.0 | 0.0 | 0.00 | 0.58 | 0.23 | 80 | 1009.6 |
| 20260507163033 | 20 | 151 | 0.0 | 0.0 | 0.00 | 0.58 | 0.23 | 83 | 1009.7 |
| 20260507162923 | 20 | 148 | 0.0 | 0.0 | 0.00 | 0.58 | 0.23 | 82 | 1009.6 |
| 20260507162822 | 20 | 200 | 0.0 | 0.0 | 0.00 | 0.58 | 0.23 | 82 | 1009.6 |
| 20260507162722 | 20 | 191 | 0.0 | 0.0 | 0.00 | 0.58 | 0.23 | 83 | 1009.7 |
| 20260507162621 | 20 | 172 | 0.0 | 0.0 | 0.00 | 0.58 | 0.23 | 84 | 1009.8 |
| 20260507162523 | 20 | 179 | 0.0 | 0.0 | 0.00 | 0.58 | 0.23 | 85 | 1009.8 |
| 20260507162420 | 20 | 200 | 0.0 | 0.0 | 0.00 | 0.58 | 0.23 | 84 | 1009.9 |
| 20260507162320 | 20 | 215 | 0.0 | 0.0 | 0.00 | 0.58 | 0.23 | 83 | 1009.8 |
| 20260507162219 | 20 | 215 | 0.0 | 0.0 | 0.00 | 0.58 | 0.23 | 84 | 1009.8 |
| 20260507162119 | 20 | 230 | 0.0 | 0.0 | 0.00 | 0.58 | 0.23 | 83 | 1009.7 |
| 20260507162016 | 20 | 230 | 0.0 | 0.0 | 0.00 | 0.58 | 0.23 | 84 | 1009.7 |
| 20260507161911 | 20 | 273 | 0.0 | 0.0 | 0.00 | 0.58 | 0.23 | 85 | 1009.8 |
| 20260507161809 | 20 | 300 | 0.0 | 0.0 | 0.00 | 0.58 | 0.23 | 85 | 1009.8 |
| 20260507161707 | 20 | 36 | 0.0 | 0.0 | 0.00 | 0.58 | 0.23 | 85 | 1009.8 |
| 20260507161607 | 20 | 43 | 0.0 | 0.0 | 0.00 | 0.58 | 0.23 | 85 | 1009.8 |
| 20260507161508 | 20 | 43 | 0.0 | 0.0 | 0.00 | 0.58 | 0.23 | 85 | 1009.9 |
| 20260507161357 | 20 | 43 | 0.0 | 0.0 | 0.00 | 0.58 | 0.23 | 86 | 1009.9 |
| 20260507161258 | 20 | 44 | 0.0 | 0.0 | 0.00 | 0.58 | 0.23 | 87 | 1009.9 |
| 20260507161159 | 20 | 71 | 0.0 | 0.0 | 0.00 | 0.58 | 0.23 | 88 | 1009.9 |
| 20260507161058 | 20 | 49 | 0.0 | 0.0 | 0.00 | 0.58 | 0.23 | 88 | 1010.0 |
| 20260507160958 | 20 | 49 | 0.0 | 0.0 | 0.00 | 0.58 | 0.23 | 88 | 1010.0 |
| 20260507160856 | 20 | 61 | 0.0 | 0.0 | 0.00 | 0.58 | 0.23 | 87 | 1009.9 |
| 20260507160756 | 20 | 97 | 0.0 | 0.0 | 0.00 | 0.58 | 0.23 | 86 | 1010.0 |
| 20260507160653 | 20 | 103 | 0.0 | 0.0 | 0.00 | 0.58 | 0.23 | 84 | 1009.9 |
| 20260507160555 | 20 | 167 | 0.0 | 0.0 | 0.00 | 0.58 | 0.23 | 84 | 1009.9 |
| 20260507160452 | 20 | 167 | 0.0 | 0.0 | 0.00 | 0.58 | 0.23 | 84 | 1009.8 |
| 20260507160352 | 19 | 168 | 0.0 | 0.0 | 0.00 | 0.58 | 0.23 | 84 | 1009.8 |
| 20260507160249 | 19 | 169 | 0.0 | 0.0 | 0.00 | 0.58 | 0.23 | 83 | 1009.8 |
| 20260507160151 | 19 | 169 | 0.0 | 0.0 | 0.00 | 0.58 | 0.23 | 82 | 1009.9 |
| 20260507160049 | 19 | 246 | 0.0 | 0.0 | 0.00 | 0.58 | 0.23 | 82 | 1009.9 |
| 20260507155951 | 19 | 283 | 0.0 | 0.0 | 0.00 | 0.58 | 0.23 | 81 | 1009.9 |
| 20260507155850 | 19 | 283 | 0.0 | 0.0 | 0.00 | 0.58 | 0.23 | 82 | 1009.9 |
| 20260507155747 | 19 | 284 | 0.0 | 0.0 | 0.00 | 0.58 | 0.23 | 82 | 1009.7 |
| 20260507155647 | 20 | 284 | 0.0 | 0.0 | 0.00 | 0.58 | 0.23 | 83 | 1009.6 |
| 20260507155546 | 20 | 284 | 0.0 | 0.0 | 0.00 | 0.58 | 0.23 | 84 | 1009.7 |
| 20260507155445 | 20 | 289 | 0.0 | 0.0 | 0.00 | 0.58 | 0.23 | 85 | 1009.5 |
| 20260507155347 | 20 | 9 | 0.0 | 0.0 | 0.00 | 0.58 | 0.23 | 84 | 1009.5 |
| 20260507155246 | 20 | 0 | 0.0 | 0.0 | 0.00 | 0.58 | 0.23 | 85 | 1009.5 |
| 20260507155147 | 20 | 355 | 0.0 | 0.0 | 0.00 | 0.58 | 0.23 | 85 | 1009.5 |
| 20260507155047 | 20 | 355 | 0.0 | 0.0 | 0.00 | 0.58 | 0.23 | 84 | 1009.6 |
| 20260507154946 | 20 | 290 | 0.0 | 0.0 | 0.00 | 0.58 | 0.23 | 84 | 1009.6 |
| 20260507154844 | 20 | 304 | 0.0 | 0.0 | 0.00 | 0.58 | 0.23 | 84 | 1009.7 |
| 20260507154743 | 20 | 114 | 0.0 | 0.0 | 0.00 | 0.58 | 0.23 | 84 | 1009.8 |
| 20260507154645 | 20 | 113 | 0.0 | 0.0 | 0.00 | 0.58 | 0.23 | 86 | 1009.8 |
| 20260507154544 | 20 | 104 | 0.0 | 0.0 | 0.00 | 0.58 | 0.23 | 87 | 1009.8 |
| 20260507154441 | 20 | 102 | 0.0 | 0.0 | 0.00 | 0.58 | 0.23 | 86 | 1009.8 |
| 20260507154343 | 19 | 102 | 0.0 | 0.0 | 0.00 | 0.58 | 0.23 | 86 | 1009.7 |
| 20260507154242 | 19 | 98 | 0.0 | 0.0 | 0.00 | 0.58 | 0.23 | 87 | 1009.7 |
| 20260507154141 | 19 | 100 | 0.0 | 0.0 | 0.00 | 0.58 | 0.23 | 87 | 1009.7 |
| 20260507154041 | 19 | 99 | 0.0 | 0.0 | 0.00 | 0.58 | 0.23 | 87 | 1009.7 |
| 20260507153943 | 19 | 94 | 0.0 | 0.0 | 0.00 | 0.58 | 0.23 | 87 | 1009.6 |
| 20260507153842 | 19 | 126 | 0.0 | 0.0 | 0.00 | 0.58 | 0.23 | 86 | 1009.6 |
| 20260507153741 | 19 | 125 | 0.0 | 0.0 | 0.00 | 0.58 | 0.23 | 86 | 1009.7 |
| 20260507153641 | 19 | 126 | 0.0 | 0.0 | 0.00 | 0.58 | 0.23 | 86 | 1009.8 |
| 20260507153543 | 19 | 126 | 0.0 | 0.0 | 0.00 | 0.58 | 0.23 | 86 | 1009.7 |
| 20260507153444 | 19 | 171 | 0.0 | 0.0 | 0.00 | 0.58 | 0.23 | 88 | 1009.7 |
| 20260507153343 | 19 | 150 | 0.0 | 0.0 | 0.00 | 0.58 | 0.23 | 87 | 1009.7 |
| 20260507153238 | 19 | 171 | 0.0 | 0.0 | 0.00 | 0.58 | 0.23 | 88 | 1009.7 |
| 20260507153137 | 19 | 171 | 0.0 | 0.0 | 0.00 | 0.58 | 0.23 | 88 | 1009.7 |
| 20260507153039 | 19 | 171 | 0.0 | 0.0 | 0.00 | 0.58 | 0.23 | 88 | 1009.7 |
| 20260507152936 | 19 | 171 | 0.0 | 0.0 | 0.00 | 0.58 | 0.23 | 88 | 1009.7 |
| 20260507152835 | 19 | 184 | 0.0 | 0.0 | 0.00 | 0.58 | 0.23 | 89 | 1009.8 |
| 20260507152737 | 18 | 180 | 0.0 | 0.0 | 0.00 | 0.58 | 0.23 | 89 | 1009.8 |
| 20260507152636 | 18 | 172 | 0.0 | 0.0 | 0.00 | 0.58 | 0.23 | 89 | 1009.9 |
| 20260507152535 | 18 | 171 | 0.0 | 0.0 | 0.00 | 0.58 | 0.23 | 90 | 1009.9 |
| 20260507152436 | 18 | 171 | 0.0 | 0.0 | 0.00 | 0.58 | 0.23 | 90 | 1010.0 |
| 20260507152336 | 18 | 171 | 0.0 | 0.0 | 0.00 | 0.58 | 0.23 | 90 | 1010.0 |
| 20260507152236 | 18 | 110 | 0.0 | 0.0 | 0.00 | 0.58 | 0.23 | 90 | 1010.0 |
| 20260507152136 | 18 | 109 | 0.0 | 0.0 | 0.00 | 0.58 | 0.23 | 90 | 1010.0 |
| 20260507152035 | 18 | 123 | 0.0 | 0.0 | 0.00 | 0.58 | 0.23 | 90 | 1010.1 |
| 20260507151935 | 18 | 153 | 0.0 | 0.0 | 0.00 | 0.58 | 0.23 | 90 | 1010.0 |
| 20260507151835 | 18 | 161 | 0.0 | 0.0 | 0.00 | 0.58 | 0.23 | 91 | 1010.2 |
| 20260507151736 | 18 | 158 | 0.0 | 0.0 | 0.00 | 0.58 | 0.23 | 91 | 1010.2 |
| 20260507151637 | 18 | 165 | 0.0 | 0.0 | 0.00 | 0.58 | 0.23 | 91 | 1010.1 |
| 20260507151535 | 18 | 165 | 0.0 | 0.0 | 0.00 | 0.58 | 0.23 | 92 | 1010.1 |
| 20260507151436 | 18 | 113 | 0.0 | 0.0 | 0.00 | 0.58 | 0.23 | 92 | 1010.1 |
| 20260507151328 | 18 | 154 | 0.0 | 0.0 | 0.00 | 0.58 | 0.23 | 92 | 1010.1 |
| 20260507151228 | 18 | 155 | 0.0 | 0.0 | 0.00 | 0.58 | 0.23 | 92 | 1010.1 |
| 20260507151127 | 18 | 159 | 0.0 | 0.0 | 0.00 | 0.58 | 0.23 | 93 | 1010.2 |
| 20260507151028 | 18 | 157 | 0.0 | 0.0 | 0.00 | 0.58 | 0.23 | 93 | 1010.1 |
| 20260507150929 | 18 | 159 | 0.0 | 0.0 | 0.00 | 0.58 | 0.23 | 93 | 1010.0 |
| 20260507150828 | 18 | 175 | 0.0 | 0.0 | 0.00 | 0.58 | 0.23 | 94 | 1010.1 |
| 20260507150728 | 18 | 183 | 0.0 | 0.0 | 0.00 | 0.58 | 0.23 | 94 | 1010.1 |
| 20260507150627 | 18 | 182 | 0.0 | 0.0 | 0.00 | 0.58 | 0.23 | 94 | 1010.0 |
| 20260507150527 | 17 | 180 | 0.0 | 0.0 | 0.00 | 0.58 | 0.23 | 94 | 1010.0 |
| 20260507150427 | 17 | 128 | 0.0 | 0.0 | 0.00 | 0.58 | 0.23 | 94 | 1010.0 |
| 20260507150328 | 17 | 128 | 0.0 | 0.0 | 0.00 | 0.58 | 0.23 | 94 | 1009.9 |
| 20260507150227 | 17 | 110 | 0.0 | 0.0 | 0.00 | 0.58 | 0.23 | 94 | 1009.9 |
| 20260507150127 | 17 | 48 | 0.0 | 0.0 | 0.00 | 0.58 | 0.23 | 94 | 1010.0 |
| 20260507150028 | 17 | 48 | 0.0 | 0.0 | 0.00 | 0.58 | 0.23 | 94 | 1010.0 |
| 20260507145928 | 17 | 26 | 0.0 | 0.0 | 0.00 | 0.58 | 0.23 | 94 | 1010.0 |
| 20260507145828 | 17 | 86 | 0.0 | 0.0 | 0.00 | 0.58 | 0.23 | 94 | 1010.0 |
| 20260507145727 | 17 | 97 | 0.0 | 0.0 | 0.00 | 0.58 | 0.23 | 94 | 1010.0 |
| 20260507145627 | 17 | 97 | 0.0 | 0.0 | 0.00 | 0.58 | 0.23 | 94 | 1010.0 |
| 20260507145527 | 17 | 97 | 0.0 | 0.0 | 0.00 | 0.58 | 0.23 | 94 | 1010.0 |
| 20260507145427 | 17 | 132 | 0.0 | 0.0 | 0.00 | 0.58 | 0.23 | 94 | 1010.1 |
| 20260507145329 | 17 | 207 | 0.0 | 3.2 | 0.00 | 0.58 | 0.23 | 94 | 1010.1 |
| 20260507145228 | 17 | 298 | 0.0 | 4.8 | 0.00 | 0.58 | 0.23 | 94 | 1010.1 |
| 20260507145128 | 17 | 300 | 0.0 | 4.8 | 0.00 | 0.58 | 0.23 | 95 | 1010.1 |
| 20260507145027 | 17 | 273 | 0.0 | 4.8 | 0.00 | 0.58 | 0.23 | 95 | 1010.1 |
| 20260507144928 | 17 | 272 | 1.6 | 4.8 | 0.00 | 0.58 | 0.23 | 95 | 1010.1 |
| 20260507144829 | 17 | 266 | 1.6 | 6.4 | 0.00 | 0.58 | 0.23 | 95 | 1010.2 |
| 20260507144728 | 17 | 266 | 1.6 | 6.4 | 0.00 | 0.58 | 0.23 | 95 | 1010.1 |
| 20260507144628 | 17 | 268 | 1.6 | 6.4 | 0.00 | 0.58 | 0.23 | 95 | 1010.2 |
| 20260507144527 | 17 | 269 | 1.6 | 6.4 | 0.00 | 0.58 | 0.23 | 95 | 1010.2 |
| 20260507144428 | 16 | 269 | 1.6 | 6.4 | 0.00 | 0.58 | 0.23 | 95 | 1010.2 |
| 20260507144329 | 16 | 271 | 1.6 | 6.4 | 0.00 | 0.58 | 0.23 | 95 | 1010.2 |
| 20260507144227 | 16 | 271 | 1.6 | 6.4 | 0.00 | 0.58 | 0.23 | 95 | 1010.2 |
| 20260507144128 | 16 | 271 | 1.6 | 6.4 | 0.00 | 0.58 | 0.23 | 95 | 1010.4 |
| 20260507144024 | 16 | 297 | 1.6 | 9.7 | 0.00 | 0.58 | 0.23 | 95 | 1010.2 |
| 20260507143923 | 16 | 297 | 1.6 | 9.7 | 0.00 | 0.58 | 0.23 | 95 | 1010.4 |
| 20260507143824 | 16 | 316 | 1.6 | 9.7 | 0.00 | 0.58 | 0.23 | 95 | 1010.2 |
| 20260507143723 | 16 | 287 | 1.6 | 9.7 | 0.00 | 0.58 | 0.23 | 95 | 1010.2 |
| 20260507143623 | 16 | 287 | 1.6 | 9.7 | 0.00 | 0.58 | 0.23 | 95 | 1010.2 |
| 20260507143523 | 16 | 289 | 1.6 | 9.7 | 0.00 | 0.58 | 0.23 | 95 | 1010.2 |
| 20260507143423 | 16 | 292 | 1.6 | 9.7 | 0.00 | 0.58 | 0.23 | 95 | 1010.4 |
| 20260507143323 | 16 | 284 | 1.6 | 9.7 | 0.00 | 0.58 | 0.23 | 95 | 1010.4 |
| 20260507143224 | 16 | 284 | 1.6 | 9.7 | 0.00 | 0.58 | 0.23 | 95 | 1010.4 |
| 20260507143123 | 16 | 284 | 1.6 | 9.7 | 0.00 | 0.58 | 0.23 | 95 | 1010.4 |
| 20260507143024 | 16 | 231 | 1.6 | 8.0 | 0.00 | 0.58 | 0.23 | 95 | 1010.4 |
| 20260507142923 | 16 | 234 | 1.6 | 8.0 | 0.00 | 0.58 | 0.23 | 95 | 1010.2 |
| 20260507142824 | 16 | 232 | 1.6 | 8.0 | 0.00 | 0.58 | 0.23 | 95 | 1010.4 |
| 20260507142724 | 16 | 232 | 1.6 | 8.0 | 0.00 | 0.58 | 0.23 | 95 | 1010.4 |
| 20260507142623 | 16 | 208 | 1.6 | 8.0 | 0.00 | 0.58 | 0.23 | 95 | 1010.2 |
| 20260507142523 | 16 | 216 | 1.6 | 8.0 | 0.00 | 0.58 | 0.23 | 95 | 1010.4 |
| 20260507142424 | 16 | 100 | 1.6 | 8.0 | 0.00 | 0.58 | 0.23 | 95 | 1010.5 |
| 20260507142323 | 16 | 38 | 1.6 | 8.0 | 0.00 | 0.58 | 0.23 | 95 | 1010.5 |
| 20260507142223 | 16 | 15 | 1.6 | 8.0 | 0.00 | 0.58 | 0.23 | 95 | 1010.5 |
| 20260507142123 | 16 | 0 | 1.6 | 6.4 | 0.00 | 0.58 | 0.23 | 95 | 1010.2 |
| 20260507142023 | 16 | 5 | 1.6 | 6.4 | 0.00 | 0.58 | 0.23 | 95 | 1010.4 |
| 20260507141924 | 16 | 5 | 3.2 | 6.4 | 0.00 | 0.58 | 0.23 | 95 | 1010.4 |
| 20260507141823 | 16 | 5 | 1.6 | 6.4 | 0.00 | 0.58 | 0.23 | 95 | 1010.4 |
| 20260507141723 | 16 | 5 | 1.6 | 6.4 | 0.00 | 0.58 | 0.23 | 95 | 1010.5 |
| 20260507141624 | 16 | 348 | 1.6 | 6.4 | 0.00 | 0.58 | 0.23 | 95 | 1010.4 |
| 20260507141525 | 16 | 349 | 1.6 | 6.4 | 0.00 | 0.58 | 0.23 | 95 | 1010.5 |
| 20260507141423 | 16 | 350 | 3.2 | 6.4 | 0.00 | 0.58 | 0.23 | 95 | 1010.4 |
| 20260507141324 | 16 | 350 | 3.2 | 6.4 | 0.00 | 0.58 | 0.23 | 95 | 1010.5 |
| 20260507141224 | 16 | 347 | 3.2 | 6.4 | 0.00 | 0.58 | 0.23 | 95 | 1010.4 |
| 20260507141125 | 16 | 273 | 1.6 | 6.4 | 0.00 | 0.58 | 0.23 | 95 | 1010.4 |
| 20260507141024 | 16 | 321 | 1.6 | 6.4 | 0.00 | 0.58 | 0.23 | 95 | 1010.5 |
| 20260507140924 | 16 | 264 | 1.6 | 6.4 | 0.00 | 0.58 | 0.23 | 95 | 1010.5 |
| 20260507140825 | 16 | 192 | 1.6 | 4.8 | 0.00 | 0.58 | 0.23 | 95 | 1010.5 |
| 20260507140719 | 16 | 238 | 1.6 | 4.8 | 0.00 | 0.58 | 0.23 | 95 | 1010.5 |
| 20260507140620 | 16 | 238 | 1.6 | 4.8 | 0.00 | 0.58 | 0.23 | 95 | 1010.4 |
| 20260507140520 | 16 | 238 | 1.6 | 4.8 | 0.00 | 0.58 | 0.23 | 95 | 1010.2 |
| 20260507140420 | 16 | 259 | 1.6 | 4.8 | 0.00 | 0.58 | 0.23 | 95 | 1010.1 |
| 20260507140320 | 16 | 249 | 1.6 | 3.2 | 0.00 | 0.58 | 0.23 | 95 | 1010.2 |
| 20260507140219 | 16 | 246 | 1.6 | 3.2 | 0.00 | 0.58 | 0.23 | 95 | 1010.2 |
| 20260507140120 | 16 | 240 | 1.6 | 3.2 | 0.00 | 0.58 | 0.23 | 95 | 1010.1 |
| 20260507140020 | 16 | 240 | 1.6 | 3.2 | 0.00 | 0.58 | 0.23 | 95 | 1010.2 |
| 20260507135920 | 16 | 240 | 1.6 | 3.2 | 0.00 | 0.58 | 0.23 | 95 | 1010.0 |
| 20260507135821 | 16 | 239 | 1.6 | 3.2 | 0.00 | 0.58 | 0.23 | 95 | 1010.0 |
| 20260507135719 | 16 | 239 | 1.6 | 3.2 | 0.00 | 0.58 | 0.23 | 95 | 1010.0 |
| 20260507135620 | 16 | 239 | 1.6 | 3.2 | 0.00 | 0.58 | 0.23 | 95 | 1009.9 |
| 20260507135520 | 16 | 239 | 1.6 | 4.8 | 0.00 | 0.58 | 0.23 | 95 | 1010.0 |
| 20260507135420 | 16 | 242 | 1.6 | 4.8 | 0.00 | 0.58 | 0.23 | 95 | 1010.1 |
| 20260507135319 | 16 | 244 | 1.6 | 4.8 | 0.00 | 0.58 | 0.23 | 95 | 1010.0 |
| 20260507135221 | 16 | 246 | 1.6 | 4.8 | 0.00 | 0.58 | 0.23 | 95 | 1009.9 |
| 20260507135119 | 16 | 246 | 1.6 | 4.8 | 0.00 | 0.58 | 0.23 | 95 | 1010.1 |
| 20260507135019 | 16 | 246 | 1.6 | 4.8 | 0.00 | 0.58 | 0.23 | 96 | 1010.1 |
| 20260507134919 | 16 | 246 | 1.6 | 4.8 | 0.00 | 0.58 | 0.23 | 96 | 1010.1 |
| 20260507134821 | 16 | 246 | 1.6 | 4.8 | 0.00 | 0.58 | 0.23 | 95 | 1010.2 |
| 20260507134721 | 16 | 246 | 1.6 | 4.8 | 0.00 | 0.58 | 0.23 | 96 | 1010.1 |
| 20260507134620 | 16 | 246 | 1.6 | 4.8 | 0.00 | 0.58 | 0.23 | 96 | 1010.2 |
| 20260507134519 | 16 | 246 | 1.6 | 4.8 | 0.00 | 0.58 | 0.23 | 96 | 1010.2 |
| 20260507134420 | 16 | 245 | 1.6 | 4.8 | 0.00 | 0.58 | 0.23 | 96 | 1010.1 |
| 20260507134320 | 16 | 245 | 1.6 | 4.8 | 0.00 | 0.58 | 0.23 | 96 | 1010.1 |
| 20260507134220 | 16 | 169 | 1.6 | 4.8 | 0.00 | 0.58 | 0.23 | 96 | 1010.1 |
| 20260507134120 | 16 | 161 | 0.0 | 4.8 | 0.00 | 0.58 | 0.23 | 96 | 1010.1 |
| 20260507134020 | 16 | 174 | 0.0 | 4.8 | 0.00 | 0.58 | 0.23 | 96 | 1010.1 |
| 20260507133920 | 16 | 117 | 1.6 | 4.8 | 0.00 | 0.58 | 0.23 | 96 | 1010.1 |
| 20260507133819 | 16 | 117 | 1.6 | 4.8 | 0.00 | 0.58 | 0.23 | 96 | 1010.0 |
| 20260507133720 | 16 | 114 | 0.0 | 4.8 | 0.03 | 0.58 | 0.23 | 96 | 1010.0 |
| 20260507133621 | 16 | 114 | 1.6 | 4.8 | 0.03 | 0.58 | 0.23 | 96 | 1010.0 |
| 20260507133521 | 16 | 114 | 1.6 | 4.8 | 0.03 | 0.58 | 0.23 | 96 | 1010.1 |
| 20260507133416 | 16 | 114 | 1.6 | 6.4 | 0.03 | 0.58 | 0.23 | 96 | 1010.1 |
| 20260507133316 | 16 | 114 | 1.6 | 6.4 | 0.03 | 0.58 | 0.23 | 96 | 1010.1 |
| 20260507133216 | 16 | 114 | 1.6 | 6.4 | 0.03 | 0.58 | 0.23 | 96 | 1010.1 |
| 20260507133114 | 16 | 114 | 1.6 | 6.4 | 0.03 | 0.58 | 0.23 | 96 | 1010.0 |
| 20260507133011 | 16 | 121 | 1.6 | 6.4 | 0.03 | 0.58 | 0.23 | 96 | 1009.9 |
| 20260507132910 | 16 | 121 | 1.6 | 6.4 | 0.03 | 0.58 | 0.23 | 96 | 1009.9 |
| 20260507132809 | 16 | 157 | 1.6 | 6.4 | 0.03 | 0.58 | 0.23 | 96 | 1009.9 |
| 20260507132710 | 16 | 170 | 1.6 | 6.4 | 0.03 | 0.58 | 0.23 | 96 | 1010.0 |
| 20260507132606 | 16 | 171 | 1.6 | 6.4 | 0.03 | 0.58 | 0.23 | 96 | 1010.1 |
| 20260507132506 | 16 | 171 | 1.6 | 6.4 | 0.03 | 0.58 | 0.23 | 96 | 1010.1 |
| 20260507132358 | 16 | 161 | 1.6 | 6.4 | 0.03 | 0.58 | 0.23 | 96 | 1010.0 |
| 20260507132258 | 16 | 161 | 1.6 | 6.4 | 0.03 | 0.58 | 0.23 | 96 | 1010.1 |
| 20260507132158 | 16 | 125 | 1.6 | 4.8 | 0.03 | 0.58 | 0.23 | 96 | 1010.1 |
| 20260507132056 | 16 | 125 | 1.6 | 4.8 | 0.03 | 0.58 | 0.23 | 96 | 1010.2 |
| 20260507131954 | 16 | 125 | 1.6 | 4.8 | 0.03 | 0.58 | 0.23 | 96 | 1010.2 |
| 20260507131849 | 16 | 118 | 0.0 | 4.8 | 0.05 | 0.58 | 0.23 | 96 | 1010.4 |
| 20260507131748 | 16 | 122 | 0.0 | 4.8 | 0.05 | 0.58 | 0.23 | 96 | 1010.4 |
| 20260507131647 | 16 | 123 | 0.0 | 6.4 | 0.05 | 0.58 | 0.23 | 96 | 1010.2 |
| 20260507131549 | 16 | 121 | 1.6 | 6.4 | 0.05 | 0.58 | 0.23 | 96 | 1010.4 |
| 20260507131445 | 16 | 124 | 1.6 | 8.0 | 0.05 | 0.58 | 0.23 | 96 | 1010.2 |
| 20260507131346 | 16 | 124 | 1.6 | 8.0 | 0.05 | 0.58 | 0.23 | 96 | 1010.2 |
| 20260507131243 | 16 | 180 | 1.6 | 8.0 | 0.05 | 0.58 | 0.23 | 96 | 1010.2 |
| 20260507131143 | 16 | 163 | 1.6 | 8.0 | 0.05 | 0.58 | 0.23 | 96 | 1010.4 |
| 20260507131042 | 16 | 163 | 1.6 | 8.0 | 0.05 | 0.58 | 0.23 | 96 | 1010.2 |
| 20260507130835 | 16 | 163 | 1.6 | 8.0 | 0.08 | 0.58 | 0.23 | 96 | 1010.1 |
| 20260507130733 | 16 | 162 | 1.6 | 8.0 | 0.08 | 0.58 | 0.23 | 96 | 1010.0 |
| 20260507130631 | 16 | 162 | 1.6 | 8.0 | 0.08 | 0.58 | 0.23 | 96 | 1010.0 |
| 20260507130532 | 16 | 162 | 0.0 | 8.0 | 0.08 | 0.58 | 0.23 | 96 | 1009.8 |
| 20260507130430 | 16 | 132 | 0.0 | 3.2 | 0.08 | 0.58 | 0.23 | 96 | 1009.9 |
| 20260507130327 | 16 | 132 | 0.0 | 3.2 | 0.08 | 0.58 | 0.23 | 96 | 1009.9 |
| 20260507130228 | 16 | 132 | 0.0 | 3.2 | 0.08 | 0.58 | 0.23 | 96 | 1009.9 |
| 20260507130125 | 15 | 132 | 1.6 | 3.2 | 0.08 | 0.58 | 0.23 | 96 | 1010.0 |
| 20260507130027 | 15 | 132 | 1.6 | 3.2 | 0.08 | 0.58 | 0.23 | 96 | 1010.0 |
| 20260507125924 | 15 | 127 | 1.6 | 3.2 | 0.10 | 0.58 | 0.23 | 96 | 1009.8 |
| 20260507125824 | 15 | 138 | 1.6 | 3.2 | 0.10 | 0.58 | 0.23 | 96 | 1009.9 |
| 20260507125722 | 15 | 138 | 1.6 | 3.2 | 0.10 | 0.58 | 0.23 | 96 | 1009.9 |
| 20260507125623 | 15 | 131 | 1.6 | 3.2 | 0.10 | 0.58 | 0.23 | 96 | 1009.8 |
| 20260507125519 | 15 | 132 | 1.6 | 3.2 | 0.10 | 0.58 | 0.23 | 96 | 1009.7 |
| 20260507125418 | 15 | 132 | 1.6 | 3.2 | 0.10 | 0.58 | 0.23 | 96 | 1009.7 |
| 20260507125309 | 15 | 132 | 1.6 | 3.2 | 0.10 | 0.58 | 0.23 | 96 | 1009.9 |
| 20260507125207 | 15 | 132 | 1.6 | 3.2 | 0.10 | 0.58 | 0.23 | 96 | 1010.0 |
| 20260507125107 | 15 | 132 | 1.6 | 3.2 | 0.10 | 0.58 | 0.23 | 96 | 1010.2 |
| 20260507125006 | 15 | 132 | 1.6 | 3.2 | 0.10 | 0.58 | 0.23 | 96 | 1010.2 |
| 20260507124905 | 15 | 126 | 1.6 | 3.2 | 0.10 | 0.58 | 0.23 | 96 | 1010.4 |
| 20260507124803 | 15 | 126 | 1.6 | 3.2 | 0.10 | 0.58 | 0.23 | 96 | 1010.5 |
| 20260507124704 | 15 | 126 | 1.6 | 3.2 | 0.10 | 0.58 | 0.23 | 96 | 1010.5 |
| 20260507124602 | 15 | 126 | 1.6 | 3.2 | 0.10 | 0.58 | 0.23 | 96 | 1010.5 |
| 20260507124502 | 15 | 126 | 0.0 | 3.2 | 0.10 | 0.58 | 0.23 | 96 | 1010.7 |
| 20260507124359 | 15 | 126 | 0.0 | 3.2 | 0.10 | 0.58 | 0.23 | 96 | 1010.7 |
| 20260507124256 | 15 | 128 | 0.0 | 3.2 | 0.10 | 0.58 | 0.23 | 96 | 1010.6 |
| 20260507124155 | 15 | 128 | 0.0 | 3.2 | 0.10 | 0.58 | 0.23 | 96 | 1010.8 |
| 20260507124053 | 15 | 128 | 0.0 | 4.8 | 0.10 | 0.58 | 0.23 | 96 | 1010.7 |
| 20260507123954 | 15 | 128 | 0.0 | 4.8 | 0.10 | 0.58 | 0.23 | 96 | 1010.6 |
| 20260507123851 | 15 | 351 | 1.6 | 4.8 | 0.10 | 0.58 | 0.23 | 96 | 1010.6 |
| 20260507123748 | 15 | 351 | 1.6 | 4.8 | 0.10 | 0.58 | 0.23 | 96 | 1010.7 |
| 20260507123646 | 15 | 351 | 1.6 | 6.4 | 0.08 | 0.56 | 0.23 | 96 | 1010.6 |
| 20260507123543 | 15 | 351 | 1.6 | 6.4 | 0.08 | 0.56 | 0.20 | 96 | 1010.6 |
| 20260507123445 | 15 | 351 | 1.6 | 6.4 | 0.08 | 0.56 | 0.20 | 96 | 1010.5 |
| 20260507123341 | 15 | 351 | 3.2 | 8.0 | 0.08 | 0.56 | 0.20 | 96 | 1010.5 |
| 20260507123236 | 15 | 319 | 3.2 | 8.0 | 0.08 | 0.56 | 0.20 | 96 | 1010.5 |
| 20260507123137 | 15 | 325 | 3.2 | 8.0 | 0.08 | 0.56 | 0.20 | 96 | 1010.5 |
| 20260507123037 | 15 | 286 | 3.2 | 8.0 | 0.08 | 0.56 | 0.20 | 96 | 1010.5 |
| 20260507122939 | 15 | 305 | 3.2 | 8.0 | 0.08 | 0.56 | 0.20 | 96 | 1010.6 |
| 20260507122835 | 15 | 171 | 3.2 | 8.0 | 0.10 | 0.56 | 0.20 | 96 | 1010.5 |
| 20260507122737 | 15 | 171 | 3.2 | 8.0 | 0.10 | 0.56 | 0.20 | 96 | 1010.6 |
| 20260507122634 | 15 | 171 | 3.2 | 8.0 | 0.10 | 0.56 | 0.20 | 96 | 1010.6 |
| 20260507122531 | 15 | 171 | 3.2 | 8.0 | 0.10 | 0.56 | 0.20 | 96 | 1010.6 |
| 20260507122433 | 15 | 172 | 3.2 | 8.0 | 0.10 | 0.56 | 0.20 | 96 | 1010.6 |
| 20260507122330 | 15 | 162 | 3.2 | 8.0 | 0.10 | 0.56 | 0.20 | 96 | 1010.6 |
| 20260507122219 | 15 | 162 | 3.2 | 8.0 | 0.10 | 0.56 | 0.20 | 96 | 1010.6 |
| 20260507122118 | 15 | 157 | 3.2 | 8.0 | 0.10 | 0.56 | 0.20 | 96 | 1010.7 |
| 20260507122020 | 15 | 155 | 3.2 | 8.0 | 0.10 | 0.56 | 0.20 | 96 | 1010.8 |
| 20260507121919 | 15 | 155 | 3.2 | 8.0 | 0.10 | 0.56 | 0.20 | 96 | 1010.8 |
| 20260507121819 | 15 | 154 | 3.2 | 8.0 | 0.08 | 0.53 | 0.20 | 96 | 1010.9 |
| 20260507121718 | 15 | 153 | 3.2 | 8.0 | 0.08 | 0.53 | 0.18 | 96 | 1010.8 |
| 20260507121616 | 15 | 124 | 3.2 | 6.4 | 0.08 | 0.53 | 0.18 | 96 | 1010.9 |
| 20260507121515 | 15 | 123 | 3.2 | 6.4 | 0.08 | 0.53 | 0.18 | 96 | 1011.0 |
| 20260507121414 | 15 | 123 | 3.2 | 9.7 | 0.10 | 0.53 | 0.18 | 96 | 1011.0 |
| 20260507121312 | 15 | 110 | 3.2 | 9.7 | 0.10 | 0.53 | 0.18 | 96 | 1011.0 |
| 20260507121207 | 15 | 149 | 3.2 | 9.7 | 0.10 | 0.53 | 0.18 | 96 | 1011.1 |
| 20260507121108 | 15 | 151 | 3.2 | 9.7 | 0.10 | 0.53 | 0.18 | 96 | 1011.2 |
| 20260507121007 | 15 | 151 | 3.2 | 9.7 | 0.08 | 0.51 | 0.15 | 96 | 1011.2 |
| 20260507120908 | 15 | 165 | 3.2 | 9.7 | 0.08 | 0.51 | 0.15 | 96 | 1011.3 |
| 20260507120805 | 15 | 192 | 1.6 | 9.7 | 0.08 | 0.51 | 0.15 | 96 | 1011.3 |
| 20260507120659 | 15 | 193 | 1.6 | 9.7 | 0.08 | 0.51 | 0.15 | 96 | 1011.3 |
| 20260507120559 | 15 | 188 | 1.6 | 9.7 | 0.08 | 0.51 | 0.15 | 96 | 1011.4 |
| 20260507120500 | 15 | 140 | 3.2 | 9.7 | 0.08 | 0.51 | 0.15 | 96 | 1011.5 |
| 20260507120358 | 15 | 135 | 3.2 | 16.1 | 0.08 | 0.51 | 0.15 | 96 | 1011.6 |
| 20260507120256 | 15 | 178 | 3.2 | 16.1 | 0.08 | 0.51 | 0.15 | 96 | 1011.6 |
| 20260507120150 | 15 | 162 | 3.2 | 16.1 | 0.08 | 0.51 | 0.15 | 96 | 1011.6 |
| 20260507120051 | 15 | 161 | 3.2 | 16.1 | 0.10 | 0.51 | 0.15 | 96 | 1011.7 |
| 20260507115951 | 15 | 169 | 3.2 | 16.1 | 0.08 | 0.48 | 0.15 | 96 | 1011.6 |
| 20260507115851 | 15 | 115 | 1.6 | 16.1 | 0.08 | 0.48 | 0.13 | 96 | 1011.6 |
| 20260507115750 | 15 | 164 | 1.6 | 16.1 | 0.08 | 0.48 | 0.13 | 96 | 1011.6 |
| 20260507115645 | 15 | 179 | 1.6 | 16.1 | 0.08 | 0.48 | 0.13 | 96 | 1011.6 |
| 20260507115545 | 15 | 177 | 1.6 | 16.1 | 0.08 | 0.48 | 0.13 | 96 | 1011.5 |
| 20260507115446 | 15 | 162 | 1.6 | 16.1 | 0.08 | 0.48 | 0.13 | 96 | 1011.4 |
| 20260507115346 | 15 | 198 | 1.6 | 8.0 | 0.08 | 0.48 | 0.13 | 96 | 1011.6 |
| 20260507115243 | 15 | 165 | 1.6 | 6.4 | 0.08 | 0.48 | 0.13 | 96 | 1011.5 |
| 20260507115133 | 15 | 123 | 0.0 | 3.2 | 0.08 | 0.48 | 0.13 | 96 | 1011.4 |
| 20260507115033 | 15 | 123 | 1.6 | 3.2 | 0.08 | 0.48 | 0.13 | 96 | 1011.4 |
| 20260507114934 | 15 | 123 | 0.0 | 3.2 | 0.08 | 0.48 | 0.13 | 96 | 1011.4 |
| 20260507114834 | 15 | 123 | 1.6 | 3.2 | 0.08 | 0.48 | 0.13 | 96 | 1011.3 |
| 20260507114731 | 15 | 123 | 1.6 | 3.2 | 0.08 | 0.48 | 0.13 | 96 | 1011.3 |
| 20260507114632 | 15 | 123 | 1.6 | 3.2 | 0.08 | 0.48 | 0.13 | 96 | 1011.2 |
| 20260507114529 | 15 | 123 | 1.6 | 3.2 | 0.08 | 0.48 | 0.13 | 96 | 1011.1 |
| 20260507114430 | 15 | 123 | 1.6 | 6.4 | 0.08 | 0.48 | 0.13 | 96 | 1011.1 |
| 20260507114328 | 15 | 186 | 1.6 | 6.4 | 0.08 | 0.48 | 0.13 | 96 | 1011.1 |
| 20260507114226 | 15 | 186 | 1.6 | 6.4 | 0.08 | 0.48 | 0.13 | 96 | 1011.1 |
| 20260507114120 | 15 | 176 | 1.6 | 6.4 | 0.08 | 0.48 | 0.13 | 96 | 1011.0 |
| 20260507114019 | 15 | 179 | 1.6 | 6.4 | 0.08 | 0.48 | 0.13 | 96 | 1011.0 |
| 20260507113920 | 15 | 188 | 3.2 | 8.0 | 0.08 | 0.48 | 0.13 | 96 | 1011.0 |
| 20260507113819 | 15 | 184 | 3.2 | 8.0 | 0.08 | 0.48 | 0.13 | 96 | 1010.9 |
| 20260507113719 | 15 | 169 | 3.2 | 8.0 | 0.08 | 0.48 | 0.13 | 96 | 1010.8 |
| 20260507113613 | 15 | 169 | 3.2 | 8.0 | 0.08 | 0.48 | 0.13 | 96 | 1010.8 |
| 20260507113514 | 15 | 172 | 3.2 | 8.0 | 0.08 | 0.48 | 0.13 | 96 | 1010.9 |
| 20260507113413 | 15 | 184 | 3.2 | 8.0 | 0.08 | 0.48 | 0.13 | 96 | 1010.8 |
| 20260507113311 | 15 | 184 | 3.2 | 8.0 | 0.08 | 0.48 | 0.13 | 96 | 1010.8 |
| 20260507113210 | 15 | 180 | 3.2 | 8.0 | 0.08 | 0.48 | 0.13 | 96 | 1010.7 |
| 20260507113104 | 15 | 169 | 3.2 | 8.0 | 0.08 | 0.48 | 0.13 | 96 | 1010.7 |
| 20260507113005 | 15 | 166 | 3.2 | 8.0 | 0.08 | 0.48 | 0.13 | 96 | 1010.6 |
| 20260507112903 | 15 | 160 | 3.2 | 8.0 | 0.08 | 0.48 | 0.13 | 96 | 1010.6 |
| 20260507112805 | 15 | 160 | 3.2 | 8.0 | 0.05 | 0.46 | 0.10 | 96 | 1010.6 |
| 20260507112703 | 15 | 156 | 3.2 | 8.0 | 0.05 | 0.46 | 0.10 | 96 | 1010.7 |
| 20260507112559 | 15 | 153 | 3.2 | 8.0 | 0.05 | 0.46 | 0.10 | 96 | 1010.7 |
| 20260507112459 | 15 | 153 | 3.2 | 8.0 | 0.05 | 0.46 | 0.10 | 96 | 1010.7 |
| 20260507112359 | 15 | 134 | 3.2 | 8.0 | 0.05 | 0.46 | 0.10 | 96 | 1010.8 |
| 20260507112300 | 15 | 134 | 3.2 | 8.0 | 0.05 | 0.46 | 0.10 | 96 | 1010.8 |
| 20260507112158 | 15 | 169 | 3.2 | 8.0 | 0.05 | 0.46 | 0.10 | 96 | 1010.9 |
| 20260507112049 | 15 | 148 | 3.2 | 8.0 | 0.05 | 0.46 | 0.10 | 96 | 1010.9 |
| 20260507111951 | 15 | 170 | 3.2 | 8.0 | 0.05 | 0.46 | 0.10 | 96 | 1010.9 |
| 20260507111850 | 15 | 170 | 1.6 | 8.0 | 0.05 | 0.46 | 0.10 | 96 | 1011.0 |
| 20260507111750 | 15 | 164 | 1.6 | 6.4 | 0.05 | 0.46 | 0.10 | 96 | 1011.0 |
| 20260507111648 | 15 | 144 | 1.6 | 4.8 | 0.05 | 0.46 | 0.10 | 96 | 1011.2 |
| 20260507111540 | 15 | 212 | 1.6 | 4.8 | 0.05 | 0.46 | 0.10 | 96 | 1011.1 |
| 20260507111441 | 15 | 207 | 1.6 | 4.8 | 0.05 | 0.46 | 0.10 | 96 | 1011.1 |
| 20260507111341 | 15 | 208 | 1.6 | 4.8 | 0.03 | 0.43 | 0.10 | 96 | 1011.1 |
| 20260507111240 | 15 | 212 | 1.6 | 4.8 | 0.03 | 0.43 | 0.08 | 96 | 1011.0 |
| 20260507111141 | 15 | 213 | 1.6 | 4.8 | 0.03 | 0.43 | 0.08 | 96 | 1011.1 |
| 20260507111041 | 15 | 214 | 1.6 | 4.8 | 0.03 | 0.43 | 0.08 | 96 | 1011.0 |
| 20260507110939 | 15 | 214 | 1.6 | 4.8 | 0.03 | 0.43 | 0.08 | 96 | 1011.0 |
| 20260507110838 | 15 | 238 | 1.6 | 4.8 | 0.03 | 0.43 | 0.08 | 96 | 1011.0 |
| 20260507110738 | 15 | 252 | 1.6 | 4.8 | 0.03 | 0.43 | 0.08 | 96 | 1011.0 |
| 20260507110636 | 15 | 261 | 1.6 | 4.8 | 0.03 | 0.43 | 0.08 | 96 | 1011.0 |
| 20260507110527 | 15 | 261 | 1.6 | 4.8 | 0.03 | 0.43 | 0.08 | 96 | 1010.9 |
| 20260507110426 | 15 | 279 | 1.6 | 4.8 | 0.03 | 0.43 | 0.08 | 96 | 1010.9 |
| 20260507110325 | 15 | 82 | 1.6 | 3.2 | 0.03 | 0.43 | 0.08 | 96 | 1010.9 |
| 20260507110226 | 15 | 99 | 1.6 | 3.2 | 0.03 | 0.43 | 0.08 | 96 | 1010.9 |
| 20260507110125 | 15 | 98 | 1.6 | 3.2 | 0.00 | 0.41 | 0.08 | 96 | 1010.8 |
| 20260507110020 | 15 | 118 | 1.6 | 3.2 | 0.00 | 0.41 | 0.05 | 96 | 1010.7 |
| 20260507105920 | 15 | 118 | 1.6 | 3.2 | 0.00 | 0.41 | 0.05 | 96 | 1010.6 |
| 20260507105819 | 15 | 117 | 0.0 | 3.2 | 0.00 | 0.41 | 0.05 | 96 | 1010.7 |
| 20260507105718 | 15 | 117 | 0.0 | 3.2 | 0.00 | 0.41 | 0.05 | 96 | 1010.6 |
| 20260507105619 | 15 | 343 | 0.0 | 3.2 | 0.00 | 0.41 | 0.05 | 96 | 1010.6 |
| 20260507105519 | 15 | 342 | 0.0 | 3.2 | 0.00 | 0.41 | 0.05 | 96 | 1010.5 |
| 20260507105417 | 15 | 343 | 0.0 | 3.2 | 0.00 | 0.41 | 0.05 | 96 | 1010.4 |
| 20260507105317 | 15 | 343 | 0.0 | 3.2 | 0.00 | 0.41 | 0.05 | 96 | 1010.5 |
| 20260507105215 | 15 | 343 | 0.0 | 3.2 | 0.00 | 0.41 | 0.05 | 96 | 1010.4 |
| 20260507105113 | 15 | 343 | 0.0 | 3.2 | 0.00 | 0.41 | 0.05 | 96 | 1010.4 |
| 20260507105004 | 15 | 343 | 0.0 | 3.2 | 0.00 | 0.41 | 0.05 | 96 | 1010.4 |
| 20260507104903 | 15 | 343 | 0.0 | 3.2 | 0.00 | 0.41 | 0.05 | 96 | 1010.2 |
| 20260507104804 | 15 | 343 | 0.0 | 3.2 | 0.00 | 0.41 | 0.05 | 96 | 1010.4 |
| 20260507104703 | 15 | 290 | 0.0 | 3.2 | 0.00 | 0.41 | 0.05 | 96 | 1010.4 |
| 20260507104603 | 15 | 279 | 0.0 | 3.2 | 0.00 | 0.41 | 0.05 | 96 | 1010.4 |
| 20260507104501 | 15 | 134 | 0.0 | 3.2 | 0.00 | 0.41 | 0.05 | 96 | 1010.2 |
| 20260507104401 | 15 | 135 | 0.0 | 3.2 | 0.00 | 0.41 | 0.05 | 96 | 1010.4 |
| 20260507104302 | 15 | 137 | 0.0 | 3.2 | 0.00 | 0.41 | 0.05 | 96 | 1010.2 |
| 20260507104159 | 15 | 137 | 1.6 | 4.8 | 0.00 | 0.41 | 0.05 | 96 | 1010.4 |
| 20260507104058 | 15 | 137 | 1.6 | 4.8 | 0.00 | 0.41 | 0.05 | 96 | 1010.2 |
| 20260507103957 | 15 | 137 | 1.6 | 4.8 | 0.00 | 0.41 | 0.05 | 96 | 1010.2 |
| 20260507103856 | 15 | 137 | 1.6 | 4.8 | 0.00 | 0.41 | 0.05 | 96 | 1010.2 |
| 20260507103753 | 15 | 137 | 1.6 | 4.8 | 0.00 | 0.41 | 0.05 | 96 | 1010.1 |
| 20260507103654 | 15 | 137 | 1.6 | 4.8 | 0.00 | 0.41 | 0.05 | 96 | 1010.1 |
| 20260507103551 | 15 | 137 | 1.6 | 4.8 | 0.00 | 0.41 | 0.05 | 96 | 1010.1 |
| 20260507103443 | 15 | 110 | 1.6 | 4.8 | 0.00 | 0.41 | 0.05 | 96 | 1010.0 |
| 20260507103342 | 15 | 110 | 1.6 | 4.8 | 0.00 | 0.41 | 0.05 | 96 | 1010.0 |
| 20260507103242 | 15 | 111 | 0.0 | 4.8 | 0.00 | 0.41 | 0.05 | 96 | 1010.0 |
| 20260507103142 | 15 | 111 | 0.0 | 4.8 | 0.00 | 0.41 | 0.05 | 96 | 1010.1 |
| 20260507103042 | 15 | 111 | 0.0 | 4.8 | 0.00 | 0.41 | 0.05 | 96 | 1010.2 |
| 20260507102941 | 15 | 111 | 1.6 | 4.8 | 0.00 | 0.41 | 0.05 | 96 | 1010.2 |
| 20260507102840 | 15 | 111 | 1.6 | 4.8 | 0.00 | 0.41 | 0.05 | 96 | 1010.2 |
| 20260507102740 | 15 | 111 | 1.6 | 4.8 | 0.00 | 0.41 | 0.05 | 96 | 1010.2 |
| 20260507102638 | 15 | 113 | 1.6 | 4.8 | 0.00 | 0.41 | 0.05 | 96 | 1010.1 |
| 20260507102536 | 15 | 113 | 1.6 | 4.8 | 0.00 | 0.41 | 0.05 | 96 | 1010.0 |
| 20260507102429 | 15 | 138 | 0.0 | 4.8 | 0.00 | 0.41 | 0.05 | 96 | 1010.0 |
| 20260507102329 | 15 | 138 | 1.6 | 4.8 | 0.00 | 0.41 | 0.05 | 96 | 1009.9 |
| 20260507102230 | 15 | 138 | 1.6 | 4.8 | 0.00 | 0.41 | 0.05 | 96 | 1009.9 |
| 20260507102129 | 15 | 138 | 0.0 | 4.8 | 0.00 | 0.41 | 0.05 | 96 | 1009.9 |
| 20260507102031 | 15 | 138 | 0.0 | 4.8 | 0.00 | 0.41 | 0.05 | 96 | 1010.1 |
| 20260507101920 | 15 | 138 | 0.0 | 3.2 | 0.00 | 0.41 | 0.05 | 96 | 1010.2 |
| 20260507101820 | 15 | 220 | 0.0 | 3.2 | 0.00 | 0.41 | 0.05 | 96 | 1010.2 |
| 20260507101719 | 15 | 242 | 0.0 | 3.2 | 0.00 | 0.41 | 0.05 | 96 | 1010.4 |
| 20260507101619 | 15 | 242 | 0.0 | 3.2 | 0.00 | 0.41 | 0.05 | 96 | 1010.2 |
| 20260507101520 | 15 | 243 | 0.0 | 3.2 | 0.00 | 0.41 | 0.05 | 96 | 1010.2 |
| 20260507101416 | 15 | 243 | 0.0 | 3.2 | 0.00 | 0.41 | 0.05 | 96 | 1010.2 |
| 20260507101315 | 15 | 242 | 0.0 | 4.8 | 0.00 | 0.41 | 0.05 | 96 | 1010.5 |
| 20260507101216 | 15 | 243 | 0.0 | 4.8 | 0.00 | 0.41 | 0.05 | 96 | 1010.4 |
| 20260507101116 | 15 | 242 | 0.0 | 4.8 | 0.00 | 0.41 | 0.05 | 96 | 1010.4 |
| 20260507101014 | 15 | 242 | 0.0 | 4.8 | 0.00 | 0.41 | 0.05 | 96 | 1010.2 |
| 20260507100913 | 15 | 242 | 0.0 | 4.8 | 0.00 | 0.41 | 0.05 | 96 | 1010.5 |
| 20260507100812 | 15 | 242 | 0.0 | 4.8 | 0.00 | 0.41 | 0.05 | 96 | 1010.4 |
| 20260507100711 | 15 | 242 | 0.0 | 4.8 | 0.00 | 0.41 | 0.05 | 96 | 1010.2 |
| 20260507100610 | 15 | 242 | 0.0 | 4.8 | 0.00 | 0.41 | 0.05 | 96 | 1010.2 |
| 20260507100508 | 15 | 242 | 0.0 | 4.8 | 0.00 | 0.41 | 0.05 | 96 | 1010.4 |
| 20260507100400 | 15 | 242 | 0.0 | 4.8 | 0.00 | 0.41 | 0.05 | 96 | 1010.4 |
| 20260507100259 | 15 | 205 | 0.0 | 3.2 | 0.00 | 0.41 | 0.05 | 96 | 1010.6 |
| 20260507100158 | 15 | 205 | 0.0 | 3.2 | 0.00 | 0.41 | 0.05 | 96 | 1010.6 |
| 20260507100100 | 15 | 205 | 1.6 | 4.8 | 0.00 | 0.41 | 0.05 | 96 | 1010.6 |
| 20260507095957 | 15 | 205 | 1.6 | 4.8 | 0.00 | 0.41 | 0.05 | 96 | 1010.5 |
| 20260507095852 | 15 | 205 | 1.6 | 4.8 | 0.00 | 0.41 | 0.05 | 96 | 1010.4 |
| 20260507095752 | 15 | 205 | 1.6 | 4.8 | 0.00 | 0.41 | 0.05 | 96 | 1010.5 |
| 20260507095651 | 15 | 205 | 1.6 | 4.8 | 0.00 | 0.41 | 0.05 | 96 | 1010.2 |
| 20260507095551 | 15 | 205 | 1.6 | 4.8 | 0.00 | 0.41 | 0.05 | 96 | 1010.2 |
| 20260507095451 | 15 | 205 | 1.6 | 4.8 | 0.00 | 0.41 | 0.05 | 96 | 1010.1 |
| 20260507095351 | 15 | 205 | 1.6 | 4.8 | 0.00 | 0.41 | 0.05 | 96 | 1010.1 |
| 20260507095250 | 15 | 205 | 1.6 | 4.8 | 0.00 | 0.41 | 0.05 | 96 | 1010.1 |
| 20260507095148 | 15 | 205 | 0.0 | 4.8 | 0.00 | 0.41 | 0.05 | 96 | 1010.1 |
| 20260507095048 | 15 | 205 | 0.0 | 4.8 | 0.00 | 0.41 | 0.05 | 96 | 1010.0 |
| 20260507094945 | 15 | 181 | 0.0 | 4.8 | 0.00 | 0.41 | 0.05 | 96 | 1010.1 |
| 20260507094840 | 15 | 181 | 0.0 | 3.2 | 0.00 | 0.41 | 0.05 | 96 | 1010.0 |
| 20260507094740 | 15 | 207 | 0.0 | 3.2 | 0.00 | 0.41 | 0.05 | 96 | 1010.1 |
| 20260507094640 | 15 | 207 | 0.0 | 3.2 | 0.00 | 0.41 | 0.05 | 96 | 1010.1 |
| 20260507094538 | 15 | 207 | 0.0 | 3.2 | 0.00 | 0.41 | 0.05 | 96 | 1010.1 |
| 20260507094435 | 15 | 207 | 0.0 | 3.2 | 0.00 | 0.41 | 0.05 | 96 | 1010.1 |
| 20260507094336 | 15 | 207 | 0.0 | 1.6 | 0.00 | 0.41 | 0.05 | 96 | 1010.1 |
| 20260507094234 | 15 | 207 | 0.0 | 4.8 | 0.00 | 0.41 | 0.05 | 96 | 1010.1 |
| 20260507094134 | 15 | 207 | 0.0 | 4.8 | 0.00 | 0.41 | 0.05 | 96 | 1010.1 |
| 20260507094032 | 15 | 207 | 1.6 | 4.8 | 0.00 | 0.41 | 0.05 | 96 | 1010.1 |
| 20260507093930 | 15 | 207 | 1.6 | 4.8 | 0.00 | 0.41 | 0.05 | 96 | 1010.1 |
| 20260507093827 | 15 | 207 | 1.6 | 4.8 | 0.00 | 0.41 | 0.05 | 96 | 1010.1 |
| 20260507093723 | 15 | 207 | 1.6 | 4.8 | 0.00 | 0.41 | 0.05 | 96 | 1010.0 |
| 20260507093623 | 15 | 207 | 1.6 | 4.8 | 0.00 | 0.41 | 0.05 | 96 | 1010.2 |
| 20260507093525 | 15 | 207 | 1.6 | 4.8 | 0.00 | 0.41 | 0.05 | 96 | 1010.2 |
| 20260507093424 | 15 | 167 | 1.6 | 4.8 | 0.00 | 0.41 | 0.05 | 96 | 1010.2 |
| 20260507093319 | 15 | 167 | 1.6 | 4.8 | 0.00 | 0.41 | 0.05 | 96 | 1010.2 |
| 20260507093217 | 15 | 167 | 0.0 | 4.8 | 0.00 | 0.41 | 0.05 | 96 | 1010.4 |
| 20260507093118 | 15 | 167 | 0.0 | 4.8 | 0.00 | 0.41 | 0.05 | 96 | 1010.4 |
| 20260507093016 | 15 | 167 | 0.0 | 1.6 | 0.00 | 0.41 | 0.05 | 96 | 1010.5 |
| 20260507092914 | 15 | 167 | 0.0 | 1.6 | 0.00 | 0.41 | 0.05 | 96 | 1010.5 |
| 20260507092811 | 15 | 167 | 0.0 | 1.6 | 0.00 | 0.41 | 0.05 | 96 | 1010.6 |
| 20260507092712 | 15 | 167 | 0.0 | 3.2 | 0.00 | 0.41 | 0.05 | 96 | 1010.6 |
| 20260507092611 | 15 | 169 | 0.0 | 3.2 | 0.00 | 0.41 | 0.05 | 96 | 1010.5 |
| 20260507092510 | 15 | 169 | 0.0 | 3.2 | 0.00 | 0.41 | 0.05 | 96 | 1010.6 |
| 20260507092408 | 15 | 169 | 0.0 | 3.2 | 0.00 | 0.41 | 0.05 | 96 | 1010.6 |
| 20260507092306 | 15 | 169 | 1.6 | 3.2 | 0.00 | 0.41 | 0.05 | 96 | 1010.5 |
| 20260507092201 | 15 | 169 | 1.6 | 3.2 | 0.00 | 0.41 | 0.05 | 96 | 1010.6 |
| 20260507092100 | 15 | 169 | 1.6 | 3.2 | 0.00 | 0.41 | 0.05 | 96 | 1010.5 |
| 20260507092001 | 15 | 169 | 1.6 | 3.2 | 0.00 | 0.41 | 0.05 | 96 | 1010.2 |
| 20260507091902 | 15 | 170 | 1.6 | 3.2 | 0.00 | 0.41 | 0.05 | 96 | 1010.4 |
| 20260507091752 | 15 | 170 | 1.6 | 3.2 | 0.00 | 0.41 | 0.05 | 96 | 1010.4 |
| 20260507091652 | 15 | 171 | 1.6 | 3.2 | 0.00 | 0.41 | 0.05 | 96 | 1010.5 |
| 20260507091551 | 15 | 171 | 1.6 | 4.8 | 0.00 | 0.41 | 0.05 | 96 | 1010.4 |
| 20260507091450 | 15 | 171 | 1.6 | 4.8 | 0.00 | 0.41 | 0.05 | 96 | 1010.2 |
| 20260507091351 | 15 | 220 | 1.6 | 4.8 | 0.00 | 0.41 | 0.05 | 96 | 1010.4 |
| 20260507091248 | 15 | 222 | 1.6 | 4.8 | 0.00 | 0.41 | 0.05 | 96 | 1010.4 |
| 20260507091146 | 15 | 207 | 1.6 | 6.4 | 0.00 | 0.41 | 0.05 | 96 | 1010.4 |
| 20260507091045 | 15 | 159 | 1.6 | 8.0 | 0.00 | 0.41 | 0.05 | 96 | 1010.2 |
| 20260507090944 | 15 | 159 | 3.2 | 8.0 | 0.00 | 0.41 | 0.05 | 96 | 1010.4 |
| 20260507090846 | 15 | 159 | 3.2 | 8.0 | 0.00 | 0.41 | 0.05 | 96 | 1010.2 |
| 20260507090742 | 15 | 159 | 3.2 | 9.7 | 0.00 | 0.41 | 0.05 | 96 | 1010.2 |
| 20260507090639 | 15 | 157 | 3.2 | 9.7 | 0.00 | 0.41 | 0.05 | 96 | 1010.1 |
| 20260507090540 | 15 | 155 | 3.2 | 9.7 | 0.00 | 0.41 | 0.05 | 96 | 1010.1 |
| 20260507090440 | 15 | 155 | 3.2 | 9.7 | 0.00 | 0.41 | 0.05 | 96 | 1010.1 |
| 20260507090339 | 15 | 155 | 3.2 | 9.7 | 0.00 | 0.41 | 0.05 | 96 | 1010.1 |
| 20260507090236 | 15 | 156 | 3.2 | 9.7 | 0.00 | 0.41 | 0.05 | 96 | 1010.2 |
| 20260507090132 | 15 | 161 | 3.2 | 9.7 | 0.00 | 0.41 | 0.05 | 96 | 1010.4 |
| 20260507090033 | 15 | 157 | 3.2 | 9.7 | 0.00 | 0.41 | 0.05 | 96 | 1010.4 |
| 20260507085932 | 15 | 169 | 3.2 | 9.7 | 0.00 | 0.41 | 0.05 | 96 | 1010.5 |
| 20260507085829 | 15 | 169 | 3.2 | 9.7 | 0.00 | 0.41 | 0.05 | 96 | 1010.4 |
| 20260507085726 | 15 | 191 | 3.2 | 8.0 | 0.00 | 0.41 | 0.05 | 96 | 1010.5 |
| 20260507085628 | 15 | 175 | 3.2 | 8.0 | 0.00 | 0.41 | 0.05 | 96 | 1010.2 |
| 20260507085527 | 15 | 165 | 1.6 | 8.0 | 0.00 | 0.41 | 0.05 | 96 | 1010.4 |
| 20260507085427 | 15 | 111 | 1.6 | 8.0 | 0.00 | 0.41 | 0.05 | 96 | 1010.4 |
| 20260507085327 | 15 | 107 | 1.6 | 8.0 | 0.00 | 0.41 | 0.05 | 96 | 1010.4 |
| 20260507085216 | 15 | 98 | 1.6 | 8.0 | 0.00 | 0.41 | 0.05 | 96 | 1010.4 |
| 20260507085113 | 15 | 167 | 1.6 | 8.0 | 0.00 | 0.41 | 0.05 | 96 | 1010.2 |
| 20260507085014 | 15 | 169 | 1.6 | 8.0 | 0.00 | 0.41 | 0.05 | 96 | 1010.2 |
| 20260507084913 | 15 | 82 | 1.6 | 4.8 | 0.00 | 0.41 | 0.05 | 96 | 1010.1 |
| 20260507084814 | 15 | 53 | 1.6 | 4.8 | 0.00 | 0.41 | 0.05 | 96 | 1010.2 |
| 20260507084702 | 15 | 201 | 1.6 | 4.8 | 0.00 | 0.41 | 0.05 | 96 | 1010.1 |
| 20260507084603 | 15 | 207 | 1.6 | 4.8 | 0.00 | 0.41 | 0.05 | 96 | 1010.2 |
| 20260507084503 | 15 | 207 | 1.6 | 4.8 | 0.00 | 0.41 | 0.05 | 96 | 1010.2 |
| 20260507084402 | 15 | 207 | 1.6 | 4.8 | 0.00 | 0.41 | 0.05 | 96 | 1010.2 |
| 20260507084303 | 15 | 207 | 1.6 | 4.8 | 0.00 | 0.41 | 0.05 | 96 | 1010.4 |
| 20260507084157 | 15 | 207 | 1.6 | 4.8 | 0.00 | 0.41 | 0.05 | 96 | 1010.2 |
| 20260507084057 | 15 | 207 | 1.6 | 4.8 | 0.00 | 0.41 | 0.05 | 96 | 1010.2 |
| 20260507083958 | 15 | 208 | 1.6 | 4.8 | 0.00 | 0.41 | 0.05 | 96 | 1010.1 |
| 20260507083858 | 15 | 213 | 1.6 | 4.8 | 0.00 | 0.41 | 0.05 | 96 | 1010.1 |
| 20260507083757 | 15 | 228 | 1.6 | 9.7 | 0.00 | 0.41 | 0.05 | 96 | 1010.0 |
| 20260507083658 | 15 | 234 | 1.6 | 9.7 | 0.00 | 0.41 | 0.05 | 96 | 1010.1 |
| 20260507083555 | 15 | 234 | 1.6 | 9.7 | 0.00 | 0.41 | 0.05 | 96 | 1010.2 |
| 20260507083455 | 15 | 236 | 1.6 | 9.7 | 0.00 | 0.41 | 0.05 | 96 | 1010.4 |
| 20260507083354 | 15 | 236 | 1.6 | 9.7 | 0.00 | 0.41 | 0.05 | 96 | 1010.6 |
| 20260507083252 | 15 | 219 | 1.6 | 9.7 | 0.00 | 0.41 | 0.05 | 96 | 1010.7 |
| 20260507083144 | 15 | 219 | 1.6 | 9.7 | 0.00 | 0.41 | 0.05 | 96 | 1010.8 |
| 20260507083045 | 15 | 227 | 1.6 | 9.7 | 0.00 | 0.41 | 0.05 | 96 | 1010.7 |
| 20260507082946 | 15 | 227 | 1.6 | 9.7 | 0.00 | 0.41 | 0.05 | 96 | 1010.9 |
| 20260507082844 | 15 | 281 | 1.6 | 6.4 | 0.00 | 0.41 | 0.05 | 96 | 1010.9 |
| 20260507082741 | 15 | 279 | 1.6 | 6.4 | 0.00 | 0.41 | 0.05 | 96 | 1010.9 |
| 20260507082639 | 15 | 279 | 1.6 | 6.4 | 0.00 | 0.41 | 0.05 | 96 | 1011.0 |
| 20260507082540 | 15 | 157 | 1.6 | 6.4 | 0.00 | 0.41 | 0.05 | 96 | 1011.0 |
| 20260507082437 | 15 | 142 | 1.6 | 6.4 | 0.00 | 0.41 | 0.05 | 96 | 1011.0 |
| 20260507082336 | 15 | 142 | 1.6 | 6.4 | 0.00 | 0.41 | 0.05 | 96 | 1011.0 |
| 20260507082235 | 15 | 142 | 1.6 | 6.4 | 0.00 | 0.41 | 0.05 | 96 | 1011.1 |
| 20260507082130 | 15 | 142 | 1.6 | 6.4 | 0.00 | 0.41 | 0.05 | 96 | 1011.1 |
| 20260507082028 | 15 | 143 | 1.6 | 6.4 | 0.00 | 0.41 | 0.05 | 96 | 1011.1 |
| 20260507081930 | 15 | 138 | 1.6 | 6.4 | 0.00 | 0.41 | 0.05 | 96 | 1011.1 |
| 20260507081829 | 15 | 310 | 1.6 | 6.4 | 0.00 | 0.41 | 0.05 | 95 | 1011.0 |
| 20260507081730 | 15 | 313 | 1.6 | 6.4 | 0.00 | 0.41 | 0.05 | 96 | 1011.0 |
| 20260507081623 | 15 | 278 | 1.6 | 6.4 | 0.00 | 0.41 | 0.05 | 96 | 1011.0 |
| 20260507081524 | 15 | 277 | 1.6 | 6.4 | 0.00 | 0.41 | 0.05 | 96 | 1010.9 |
| 20260507081424 | 15 | 277 | 3.2 | 11.3 | 0.00 | 0.41 | 0.05 | 96 | 1010.9 |
| 20260507081321 | 15 | 280 | 3.2 | 11.3 | 0.00 | 0.41 | 0.05 | 96 | 1010.9 |
| 20260507081219 | 15 | 277 | 3.2 | 11.3 | 0.00 | 0.41 | 0.05 | 96 | 1010.9 |
| 20260507081118 | 15 | 277 | 3.2 | 11.3 | 0.00 | 0.41 | 0.05 | 95 | 1010.8 |
| 20260507081017 | 15 | 288 | 3.2 | 11.3 | 0.00 | 0.41 | 0.05 | 95 | 1010.9 |
| 20260507080917 | 15 | 288 | 3.2 | 11.3 | 0.00 | 0.41 | 0.05 | 95 | 1010.9 |
| 20260507080815 | 15 | 286 | 3.2 | 11.3 | 0.00 | 0.41 | 0.05 | 96 | 1010.9 |
| 20260507080713 | 15 | 287 | 3.2 | 11.3 | 0.00 | 0.41 | 0.05 | 96 | 1010.9 |
| 20260507080610 | 15 | 288 | 3.2 | 11.3 | 0.00 | 0.41 | 0.05 | 95 | 1010.9 |
| 20260507080511 | 15 | 288 | 1.6 | 11.3 | 0.00 | 0.41 | 0.05 | 95 | 1010.9 |
| 20260507080410 | 15 | 322 | 1.6 | 6.4 | 0.00 | 0.41 | 0.05 | 95 | 1010.9 |
| 20260507080310 | 15 | 329 | 1.6 | 6.4 | 0.00 | 0.41 | 0.05 | 95 | 1010.8 |
| 20260507080208 | 15 | 99 | 1.6 | 4.8 | 0.00 | 0.41 | 0.05 | 95 | 1010.8 |
| 20260507075957 | 15 | 100 | 1.6 | 4.8 | 0.00 | 0.41 | 0.05 | 95 | 1010.7 |
| 20260507075857 | 15 | 101 | 1.6 | 4.8 | 0.00 | 0.41 | 0.05 | 95 | 1010.6 |
| 20260507075756 | 15 | 111 | 1.6 | 4.8 | 0.00 | 0.41 | 0.05 | 95 | 1010.6 |
| 20260507075552 | 15 | 96 | 1.6 | 4.8 | 0.00 | 0.41 | 0.05 | 95 | 1010.6 |
| 20260507075453 | 15 | 96 | 1.6 | 4.8 | 0.00 | 0.41 | 0.05 | 95 | 1010.6 |
| 20260507075354 | 15 | 96 | 1.6 | 4.8 | 0.00 | 0.41 | 0.05 | 95 | 1010.6 |
| 20260507075253 | 15 | 62 | 1.6 | 4.8 | 0.00 | 0.41 | 0.05 | 95 | 1010.6 |
| 20260507075152 | 15 | 61 | 1.6 | 4.8 | 0.00 | 0.41 | 0.05 | 95 | 1010.6 |
| 20260507075046 | 15 | 77 | 1.6 | 4.8 | 0.00 | 0.41 | 0.05 | 95 | 1010.5 |
| 20260507074945 | 15 | 77 | 1.6 | 4.8 | 0.00 | 0.41 | 0.05 | 95 | 1010.5 |
| 20260507074846 | 15 | 76 | 1.6 | 4.8 | 0.00 | 0.41 | 0.05 | 95 | 1010.5 |
| 20260507074745 | 15 | 76 | 1.6 | 6.4 | 0.00 | 0.41 | 0.05 | 95 | 1010.6 |
| 20260507074645 | 15 | 105 | 1.6 | 6.4 | 0.00 | 0.41 | 0.05 | 95 | 1010.5 |
| 20260507074538 | 15 | 105 | 1.6 | 6.4 | 0.00 | 0.41 | 0.05 | 95 | 1010.6 |
| 20260507074440 | 15 | 105 | 1.6 | 6.4 | 0.00 | 0.41 | 0.05 | 95 | 1010.6 |
| 20260507074338 | 15 | 105 | 1.6 | 6.4 | 0.00 | 0.41 | 0.05 | 95 | 1010.6 |
| 20260507074237 | 15 | 105 | 1.6 | 6.4 | 0.00 | 0.41 | 0.05 | 95 | 1010.7 |
| 20260507074135 | 15 | 355 | 1.6 | 6.4 | 0.00 | 0.41 | 0.05 | 95 | 1010.6 |
| 20260507074031 | 15 | 339 | 1.6 | 6.4 | 0.00 | 0.41 | 0.05 | 95 | 1010.7 |
| 20260507073932 | 15 | 337 | 1.6 | 6.4 | 0.00 | 0.41 | 0.05 | 96 | 1010.7 |
| 20260507073830 | 15 | 161 | 1.6 | 6.4 | 0.00 | 0.41 | 0.05 | 95 | 1010.7 |
| 20260507073731 | 15 | 154 | 1.6 | 6.4 | 0.00 | 0.41 | 0.05 | 95 | 1010.7 |
| 20260507073630 | 15 | 162 | 1.6 | 6.4 | 0.00 | 0.41 | 0.05 | 96 | 1010.7 |
| 20260507073526 | 15 | 163 | 1.6 | 6.4 | 0.00 | 0.41 | 0.05 | 96 | 1010.7 |
| 20260507073422 | 15 | 163 | 1.6 | 6.4 | 0.00 | 0.41 | 0.05 | 96 | 1010.6 |
| 20260507073324 | 15 | 163 | 1.6 | 6.4 | 0.00 | 0.41 | 0.05 | 96 | 1010.6 |
| 20260507073223 | 15 | 163 | 1.6 | 6.4 | 0.00 | 0.41 | 0.05 | 96 | 1010.6 |
| 20260507073123 | 15 | 166 | 1.6 | 6.4 | 0.00 | 0.41 | 0.05 | 95 | 1010.6 |
| 20260507073016 | 15 | 173 | 1.6 | 4.8 | 0.00 | 0.41 | 0.05 | 96 | 1010.6 |
| 20260507072918 | 15 | 222 | 0.0 | 4.8 | 0.00 | 0.41 | 0.05 | 96 | 1010.6 |
| 20260507072817 | 15 | 222 | 0.0 | 4.8 | 0.00 | 0.41 | 0.05 | 96 | 1010.7 |
| 20260507072716 | 15 | 246 | 0.0 | 4.8 | 0.00 | 0.41 | 0.05 | 96 | 1010.7 |
| 20260507072614 | 15 | 247 | 1.6 | 4.8 | 0.00 | 0.41 | 0.05 | 96 | 1010.6 |
| 20260507072509 | 15 | 246 | 1.6 | 4.8 | 0.00 | 0.41 | 0.05 | 96 | 1010.5 |
| 20260507072408 | 15 | 248 | 1.6 | 4.8 | 0.00 | 0.41 | 0.05 | 96 | 1010.7 |
| 20260507072308 | 15 | 296 | 1.6 | 9.7 | 0.00 | 0.41 | 0.05 | 96 | 1010.5 |
| 20260507072208 | 15 | 196 | 1.6 | 9.7 | 0.00 | 0.41 | 0.05 | 96 | 1010.5 |
| 20260507072107 | 15 | 167 | 3.2 | 9.7 | 0.00 | 0.41 | 0.05 | 96 | 1010.5 |
| 20260507072002 | 15 | 167 | 3.2 | 9.7 | 0.00 | 0.41 | 0.05 | 96 | 1010.4 |
| 20260507071901 | 15 | 167 | 3.2 | 9.7 | 0.00 | 0.41 | 0.05 | 96 | 1010.5 |
| 20260507071802 | 15 | 170 | 3.2 | 9.7 | 0.00 | 0.41 | 0.05 | 96 | 1010.5 |
| 20260507071701 | 15 | 173 | 3.2 | 9.7 | 0.00 | 0.41 | 0.05 | 96 | 1010.6 |
| 20260507071602 | 15 | 174 | 3.2 | 9.7 | 0.00 | 0.41 | 0.05 | 96 | 1010.6 |
| 20260507071454 | 15 | 174 | 3.2 | 12.9 | 0.00 | 0.41 | 0.05 | 96 | 1010.6 |
| 20260507071355 | 16 | 174 | 1.6 | 12.9 | 0.00 | 0.41 | 0.05 | 96 | 1010.8 |
| 20260507071254 | 15 | 191 | 1.6 | 12.9 | 0.00 | 0.41 | 0.05 | 96 | 1010.8 |
| 20260507071153 | 15 | 193 | 1.6 | 12.9 | 0.00 | 0.41 | 0.05 | 96 | 1010.9 |
| 20260507071051 | 15 | 282 | 1.6 | 12.9 | 0.00 | 0.41 | 0.05 | 96 | 1011.0 |
| 20260507070947 | 15 | 221 | 1.6 | 12.9 | 0.00 | 0.41 | 0.05 | 96 | 1011.1 |
| 20260507070845 | 15 | 221 | 1.6 | 12.9 | 0.00 | 0.41 | 0.05 | 96 | 1011.2 |
| 20260507070746 | 16 | 271 | 1.6 | 12.9 | 0.00 | 0.41 | 0.05 | 96 | 1011.2 |
| 20260507070644 | 16 | 272 | 1.6 | 12.9 | 0.00 | 0.41 | 0.05 | 96 | 1011.2 |
| 20260507070545 | 15 | 236 | 1.6 | 4.8 | 0.00 | 0.41 | 0.05 | 96 | 1011.3 |
| 20260507070442 | 15 | 244 | 1.6 | 4.8 | 0.00 | 0.41 | 0.05 | 96 | 1011.3 |
| 20260507070340 | 16 | 246 | 1.6 | 4.8 | 0.00 | 0.41 | 0.05 | 96 | 1011.2 |
| 20260507070241 | 15 | 302 | 1.6 | 4.8 | 0.00 | 0.41 | 0.05 | 96 | 1011.2 |
| 20260507070141 | 15 | 302 | 1.6 | 4.8 | 0.00 | 0.41 | 0.05 | 96 | 1011.1 |
| 20260507070041 | 16 | 302 | 1.6 | 6.4 | 0.00 | 0.41 | 0.05 | 96 | 1011.1 |
| 20260507065942 | 16 | 198 | 3.2 | 6.4 | 0.00 | 0.41 | 0.05 | 96 | 1011.1 |
| 20260507065841 | 16 | 196 | 3.2 | 6.4 | 0.00 | 0.41 | 0.05 | 96 | 1011.0 |
| 20260507065739 | 16 | 196 | 3.2 | 12.9 | 0.00 | 0.41 | 0.05 | 96 | 1011.1 |
| 20260507065639 | 16 | 287 | 3.2 | 12.9 | 0.00 | 0.41 | 0.05 | 96 | 1011.2 |
| 20260507065539 | 16 | 288 | 3.2 | 12.9 | 0.00 | 0.41 | 0.05 | 96 | 1011.1 |
| 20260507065438 | 16 | 180 | 3.2 | 12.9 | 0.00 | 0.41 | 0.05 | 96 | 1011.1 |
| 20260507065335 | 16 | 179 | 3.2 | 12.9 | 0.00 | 0.41 | 0.05 | 96 | 1011.1 |
| 20260507065234 | 16 | 182 | 3.2 | 12.9 | 0.00 | 0.41 | 0.05 | 96 | 1011.0 |
| 20260507065132 | 16 | 188 | 4.8 | 12.9 | 0.00 | 0.41 | 0.05 | 96 | 1011.0 |
| 20260507065032 | 16 | 177 | 3.2 | 12.9 | 0.00 | 0.41 | 0.05 | 96 | 1011.0 |
| 20260507064932 | 16 | 178 | 3.2 | 12.9 | 0.00 | 0.41 | 0.05 | 96 | 1011.1 |
| 20260507064833 | 16 | 150 | 3.2 | 12.9 | 0.00 | 0.41 | 0.05 | 96 | 1011.2 |
| 20260507064732 | 16 | 167 | 3.2 | 11.3 | 0.00 | 0.41 | 0.05 | 96 | 1011.3 |
| 20260507064634 | 16 | 167 | 3.2 | 11.3 | 0.00 | 0.41 | 0.05 | 96 | 1011.3 |
| 20260507064532 | 16 | 40 | 3.2 | 11.3 | 0.00 | 0.41 | 0.05 | 96 | 1011.3 |
| 20260507064432 | 16 | 179 | 3.2 | 11.3 | 0.00 | 0.41 | 0.05 | 96 | 1011.2 |
| 20260507064331 | 16 | 156 | 3.2 | 11.3 | 0.00 | 0.41 | 0.05 | 96 | 1011.3 |
| 20260507064228 | 16 | 172 | 1.6 | 11.3 | 0.00 | 0.41 | 0.05 | 96 | 1011.3 |
| 20260507064124 | 16 | 178 | 1.6 | 11.3 | 0.00 | 0.41 | 0.05 | 95 | 1011.2 |
| 20260507064025 | 16 | 165 | 1.6 | 9.7 | 0.00 | 0.41 | 0.05 | 95 | 1011.3 |
| 20260507063925 | 16 | 154 | 1.6 | 6.4 | 0.00 | 0.41 | 0.05 | 95 | 1011.4 |
| 20260507063825 | 16 | 142 | 1.6 | 6.4 | 0.00 | 0.41 | 0.05 | 95 | 1011.4 |
| 20260507063720 | 16 | 142 | 1.6 | 6.4 | 0.00 | 0.41 | 0.05 | 95 | 1011.3 |
| 20260507063619 | 16 | 142 | 1.6 | 6.4 | 0.00 | 0.41 | 0.05 | 95 | 1011.2 |
| 20260507063519 | 16 | 141 | 1.6 | 12.9 | 0.00 | 0.41 | 0.05 | 95 | 1011.3 |
| 20260507063419 | 16 | 125 | 1.6 | 12.9 | 0.00 | 0.41 | 0.05 | 95 | 1011.3 |
| 20260507063319 | 16 | 124 | 1.6 | 12.9 | 0.00 | 0.41 | 0.05 | 95 | 1011.2 |
| 20260507063217 | 16 | 126 | 1.6 | 12.9 | 0.00 | 0.41 | 0.05 | 95 | 1011.3 |
| 20260507063116 | 16 | 126 | 1.6 | 12.9 | 0.00 | 0.41 | 0.05 | 95 | 1011.3 |
| 20260507063016 | 16 | 192 | 3.2 | 12.9 | 0.00 | 0.41 | 0.05 | 95 | 1011.3 |
| 20260507062914 | 16 | 192 | 3.2 | 12.9 | 0.00 | 0.41 | 0.05 | 95 | 1011.3 |
| 20260507062816 | 16 | 192 | 3.2 | 12.9 | 0.00 | 0.41 | 0.05 | 95 | 1011.3 |
| 20260507062715 | 16 | 169 | 3.2 | 12.9 | 0.00 | 0.41 | 0.05 | 95 | 1011.3 |
| 20260507062614 | 16 | 170 | 4.8 | 12.9 | 0.00 | 0.41 | 0.05 | 95 | 1011.3 |
| 20260507062515 | 16 | 184 | 3.2 | 11.3 | 0.00 | 0.41 | 0.05 | 95 | 1011.3 |
| 20260507062414 | 16 | 177 | 3.2 | 11.3 | 0.00 | 0.41 | 0.05 | 95 | 1011.3 |
| 20260507062312 | 16 | 157 | 3.2 | 11.3 | 0.00 | 0.41 | 0.05 | 95 | 1011.3 |
| 20260507062211 | 16 | 153 | 3.2 | 11.3 | 0.00 | 0.41 | 0.05 | 95 | 1011.3 |
| 20260507062110 | 16 | 183 | 4.8 | 11.3 | 0.00 | 0.41 | 0.05 | 95 | 1011.4 |
| 20260507062011 | 16 | 190 | 4.8 | 11.3 | 0.03 | 0.41 | 0.05 | 95 | 1011.2 |
| 20260507061912 | 16 | 128 | 4.8 | 11.3 | 0.03 | 0.41 | 0.05 | 95 | 1011.3 |
| 20260507061810 | 16 | 184 | 4.8 | 11.3 | 0.03 | 0.41 | 0.05 | 95 | 1011.4 |
| 20260507061709 | 16 | 175 | 4.8 | 11.3 | 0.03 | 0.41 | 0.05 | 95 | 1011.4 |
| 20260507061607 | 16 | 192 | 4.8 | 11.3 | 0.03 | 0.41 | 0.05 | 96 | 1011.4 |
| 20260507061507 | 16 | 190 | 4.8 | 11.3 | 0.03 | 0.41 | 0.05 | 95 | 1011.4 |
| 20260507061408 | 16 | 182 | 3.2 | 11.3 | 0.03 | 0.41 | 0.05 | 95 | 1011.5 |
| 20260507061306 | 16 | 275 | 3.2 | 11.3 | 0.03 | 0.41 | 0.05 | 95 | 1011.4 |
| 20260507061206 | 16 | 199 | 3.2 | 14.5 | 0.03 | 0.41 | 0.05 | 96 | 1011.4 |
| 20260507061105 | 16 | 187 | 4.8 | 14.5 | 0.03 | 0.41 | 0.05 | 95 | 1011.3 |
| 20260507060959 | 16 | 188 | 4.8 | 14.5 | 0.03 | 0.41 | 0.05 | 95 | 1011.3 |
| 20260507060858 | 16 | 220 | 4.8 | 17.7 | 0.03 | 0.41 | 0.05 | 95 | 1011.3 |
| 20260507060800 | 16 | 163 | 6.4 | 19.3 | 0.03 | 0.41 | 0.05 | 95 | 1011.3 |
| 20260507060658 | 16 | 194 | 6.4 | 19.3 | 0.03 | 0.41 | 0.05 | 96 | 1011.3 |
| 20260507060559 | 16 | 238 | 6.4 | 19.3 | 0.03 | 0.41 | 0.05 | 96 | 1011.3 |
| 20260507060459 | 16 | 184 | 8.0 | 19.3 | 0.03 | 0.41 | 0.05 | 95 | 1011.2 |
| 20260507060357 | 16 | 199 | 8.0 | 24.1 | 0.03 | 0.41 | 0.05 | 96 | 1011.3 |
| 20260507060256 | 16 | 232 | 8.0 | 24.1 | 0.03 | 0.41 | 0.05 | 95 | 1011.3 |
| 20260507060157 | 16 | 181 | 9.7 | 24.1 | 0.03 | 0.41 | 0.05 | 96 | 1011.3 |
| 20260507060057 | 16 | 221 | 9.7 | 24.1 | 0.03 | 0.41 | 0.05 | 95 | 1011.3 |
| 20260507055957 | 16 | 159 | 9.7 | 24.1 | 0.03 | 0.41 | 0.05 | 95 | 1011.3 |
| 20260507055856 | 16 | 212 | 9.7 | 24.1 | 0.03 | 0.41 | 0.05 | 95 | 1011.3 |
| 20260507055757 | 16 | 199 | 9.7 | 24.1 | 0.03 | 0.41 | 0.05 | 95 | 1011.4 |
| 20260507055658 | 16 | 174 | 9.7 | 25.7 | 0.03 | 0.41 | 0.05 | 95 | 1011.4 |
| 20260507055558 | 16 | 196 | 9.7 | 25.7 | 0.03 | 0.41 | 0.05 | 95 | 1011.4 |
| 20260507055456 | 16 | 161 | 9.7 | 25.7 | 0.03 | 0.41 | 0.05 | 95 | 1011.4 |
| 20260507055357 | 16 | 200 | 8.0 | 25.7 | 0.03 | 0.41 | 0.05 | 95 | 1011.4 |
| 20260507055258 | 16 | 155 | 8.0 | 25.7 | 0.03 | 0.41 | 0.05 | 95 | 1011.5 |
| 20260507055157 | 16 | 172 | 8.0 | 25.7 | 0.03 | 0.41 | 0.05 | 95 | 1011.5 |
| 20260507055057 | 16 | 161 | 8.0 | 25.7 | 0.03 | 0.41 | 0.05 | 95 | 1011.6 |
| 20260507054956 | 16 | 188 | 8.0 | 25.7 | 0.03 | 0.41 | 0.05 | 95 | 1011.7 |
| 20260507054858 | 16 | 173 | 6.4 | 25.7 | 0.03 | 0.41 | 0.05 | 95 | 1011.7 |
| 20260507054757 | 16 | 166 | 6.4 | 25.7 | 0.03 | 0.41 | 0.05 | 95 | 1011.8 |
| 20260507054657 | 16 | 198 | 6.4 | 17.7 | 0.03 | 0.41 | 0.05 | 95 | 1012.0 |
| 20260507054558 | 16 | 162 | 6.4 | 17.7 | 0.03 | 0.41 | 0.05 | 95 | 1012.1 |
| 20260507054457 | 16 | 135 | 6.4 | 17.7 | 0.03 | 0.41 | 0.05 | 95 | 1012.1 |
| 20260507054357 | 16 | 154 | 4.8 | 17.7 | 0.03 | 0.41 | 0.05 | 95 | 1012.1 |
| 20260507054256 | 16 | 162 | 4.8 | 17.7 | 0.03 | 0.41 | 0.05 | 95 | 1012.2 |
| 20260507054157 | 16 | 156 | 4.8 | 14.5 | 0.03 | 0.41 | 0.05 | 95 | 1012.2 |
| 20260507054050 | 16 | 171 | 4.8 | 14.5 | 0.03 | 0.41 | 0.05 | 95 | 1012.3 |
| 20260507053950 | 16 | 182 | 4.8 | 14.5 | 0.03 | 0.41 | 0.05 | 95 | 1012.4 |
| 20260507053851 | 16 | 139 | 4.8 | 14.5 | 0.03 | 0.41 | 0.05 | 95 | 1012.5 |
| 20260507053750 | 16 | 169 | 3.2 | 14.5 | 0.03 | 0.41 | 0.05 | 95 | 1012.6 |
| 20260507053650 | 16 | 194 | 3.2 | 11.3 | 0.03 | 0.41 | 0.05 | 95 | 1012.8 |
| 20260507053550 | 16 | 171 | 3.2 | 11.3 | 0.03 | 0.41 | 0.05 | 95 | 1012.7 |
| 20260507053450 | 16 | 167 | 3.2 | 11.3 | 0.03 | 0.41 | 0.05 | 95 | 1012.8 |
| 20260507053351 | 16 | 177 | 3.2 | 11.3 | 0.03 | 0.41 | 0.05 | 95 | 1012.8 |
| 20260507053252 | 16 | 183 | 3.2 | 11.3 | 0.03 | 0.41 | 0.05 | 95 | 1012.8 |
| 20260507053148 | 16 | 174 | 3.2 | 11.3 | 0.03 | 0.41 | 0.05 | 95 | 1012.8 |
| 20260507053050 | 16 | 193 | 4.8 | 12.9 | 0.03 | 0.41 | 0.05 | 95 | 1012.9 |
| 20260507052949 | 16 | 194 | 4.8 | 12.9 | 0.03 | 0.41 | 0.05 | 95 | 1012.9 |
| 20260507052849 | 16 | 180 | 3.2 | 12.9 | 0.03 | 0.41 | 0.05 | 95 | 1012.8 |
| 20260507052749 | 16 | 198 | 4.8 | 12.9 | 0.03 | 0.41 | 0.05 | 95 | 1012.8 |
| 20260507052647 | 16 | 163 | 4.8 | 12.9 | 0.05 | 0.41 | 0.05 | 95 | 1012.7 |
| 20260507052547 | 16 | 186 | 4.8 | 12.9 | 0.05 | 0.41 | 0.05 | 95 | 1012.6 |
| 20260507052445 | 16 | 175 | 4.8 | 12.9 | 0.05 | 0.41 | 0.05 | 95 | 1012.6 |
| 20260507052340 | 16 | 178 | 4.8 | 12.9 | 0.05 | 0.41 | 0.05 | 95 | 1012.6 |
| 20260507052242 | 16 | 161 | 4.8 | 12.9 | 0.05 | 0.41 | 0.05 | 95 | 1012.6 |
| 20260507052141 | 16 | 164 | 4.8 | 12.9 | 0.05 | 0.41 | 0.05 | 95 | 1012.5 |
| 20260507052041 | 16 | 165 | 4.8 | 12.9 | 0.05 | 0.41 | 0.05 | 95 | 1012.6 |
| 20260507051940 | 16 | 161 | 4.8 | 12.9 | 0.03 | 0.38 | 0.05 | 95 | 1012.6 |
| 20260507051841 | 16 | 168 | 4.8 | 12.9 | 0.03 | 0.38 | 0.03 | 95 | 1012.6 |
| 20260507051741 | 16 | 168 | 3.2 | 12.9 | 0.03 | 0.38 | 0.03 | 95 | 1012.5 |
| 20260507051641 | 16 | 170 | 3.2 | 12.9 | 0.03 | 0.38 | 0.03 | 95 | 1012.5 |
| 20260507051542 | 16 | 163 | 3.2 | 12.9 | 0.03 | 0.38 | 0.03 | 95 | 1012.4 |
| 20260507051442 | 16 | 161 | 3.2 | 12.9 | 0.03 | 0.38 | 0.03 | 95 | 1012.5 |
| 20260507051340 | 16 | 172 | 1.6 | 12.9 | 0.03 | 0.38 | 0.03 | 95 | 1012.6 |
| 20260507051241 | 16 | 153 | 1.6 | 6.4 | 0.03 | 0.38 | 0.03 | 95 | 1012.7 |
| 20260507051138 | 16 | 151 | 1.6 | 6.4 | 0.03 | 0.38 | 0.03 | 95 | 1012.9 |
| 20260507051040 | 16 | 150 | 1.6 | 6.4 | 0.03 | 0.38 | 0.03 | 95 | 1013.0 |
| 20260507050939 | 16 | 165 | 1.6 | 6.4 | 0.03 | 0.38 | 0.03 | 95 | 1013.0 |
| 20260507050838 | 16 | 165 | 1.6 | 6.4 | 0.03 | 0.38 | 0.03 | 95 | 1013.0 |
| 20260507050740 | 16 | 164 | 1.6 | 6.4 | 0.03 | 0.38 | 0.03 | 95 | 1013.0 |
| 20260507050638 | 16 | 164 | 1.6 | 6.4 | 0.03 | 0.38 | 0.03 | 95 | 1013.0 |
| 20260507050539 | 16 | 162 | 1.6 | 6.4 | 0.03 | 0.38 | 0.03 | 95 | 1013.1 |
| 20260507050439 | 16 | 162 | 1.6 | 6.4 | 0.03 | 0.38 | 0.03 | 95 | 1013.0 |
| 20260507050340 | 16 | 162 | 1.6 | 6.4 | 0.03 | 0.38 | 0.03 | 95 | 1013.1 |
| 20260507050239 | 16 | 119 | 1.6 | 6.4 | 0.03 | 0.38 | 0.03 | 95 | 1013.1 |
| 20260507050138 | 16 | 119 | 1.6 | 6.4 | 0.03 | 0.38 | 0.03 | 95 | 1013.1 |
| 20260507050039 | 16 | 119 | 1.6 | 6.4 | 0.03 | 0.38 | 0.03 | 95 | 1013.1 |
| 20260507045939 | 16 | 119 | 1.6 | 6.4 | 0.03 | 0.38 | 0.03 | 95 | 1013.1 |
| 20260507045838 | 16 | 113 | 1.6 | 6.4 | 0.03 | 0.38 | 0.03 | 95 | 1013.2 |
| 20260507045738 | 16 | 111 | 1.6 | 6.4 | 0.03 | 0.38 | 0.03 | 95 | 1013.2 |
| 20260507045638 | 16 | 111 | 1.6 | 6.4 | 0.03 | 0.38 | 0.03 | 95 | 1013.3 |
| 20260507045538 | 16 | 98 | 1.6 | 3.2 | 0.03 | 0.38 | 0.03 | 95 | 1013.3 |
| 20260507045439 | 16 | 98 | 1.6 | 3.2 | 0.03 | 0.38 | 0.03 | 95 | 1013.1 |
| 20260507045338 | 16 | 98 | 1.6 | 4.8 | 0.03 | 0.38 | 0.03 | 95 | 1013.1 |
| 20260507045239 | 16 | 98 | 1.6 | 4.8 | 0.03 | 0.38 | 0.03 | 95 | 1013.0 |
| 20260507045139 | 16 | 98 | 1.6 | 4.8 | 0.03 | 0.38 | 0.03 | 95 | 1013.0 |
| 20260507045040 | 16 | 97 | 1.6 | 4.8 | 0.03 | 0.38 | 0.03 | 95 | 1013.0 |
| 20260507044938 | 16 | 96 | 1.6 | 8.0 | 0.03 | 0.38 | 0.03 | 95 | 1013.1 |
| 20260507044839 | 16 | 96 | 1.6 | 8.0 | 0.03 | 0.38 | 0.03 | 95 | 1013.1 |
| 20260507044738 | 16 | 96 | 1.6 | 8.0 | 0.03 | 0.38 | 0.03 | 95 | 1013.0 |
| 20260507044640 | 16 | 96 | 1.6 | 8.0 | 0.03 | 0.38 | 0.03 | 95 | 1013.0 |
| 20260507044538 | 16 | 96 | 1.6 | 8.0 | 0.03 | 0.38 | 0.03 | 95 | 1013.0 |
| 20260507044438 | 16 | 96 | 1.6 | 8.0 | 0.03 | 0.38 | 0.03 | 95 | 1013.1 |
| 20260507044340 | 16 | 96 | 1.6 | 8.0 | 0.03 | 0.38 | 0.03 | 95 | 1013.3 |
| 20260507044238 | 16 | 96 | 1.6 | 8.0 | 0.03 | 0.38 | 0.03 | 95 | 1013.7 |
| 20260507044139 | 16 | 101 | 1.6 | 8.0 | 0.03 | 0.38 | 0.03 | 95 | 1013.7 |
| 20260507044040 | 16 | 101 | 1.6 | 8.0 | 0.03 | 0.38 | 0.03 | 95 | 1013.8 |
| 20260507043939 | 16 | 185 | 1.6 | 8.0 | 0.03 | 0.38 | 0.03 | 95 | 1013.9 |
| 20260507043835 | 16 | 163 | 1.6 | 8.0 | 0.03 | 0.38 | 0.03 | 95 | 1013.9 |
| 20260507043736 | 16 | 165 | 1.6 | 8.0 | 0.03 | 0.38 | 0.03 | 95 | 1013.8 |
| 20260507043634 | 16 | 55 | 1.6 | 8.0 | 0.03 | 0.38 | 0.03 | 95 | 1013.9 |
| 20260507043536 | 16 | 34 | 1.6 | 14.5 | 0.03 | 0.38 | 0.03 | 95 | 1013.8 |
| 20260507043436 | 16 | 182 | 3.2 | 14.5 | 0.03 | 0.38 | 0.03 | 95 | 1013.7 |
| 20260507043335 | 16 | 182 | 3.2 | 14.5 | 0.03 | 0.38 | 0.03 | 95 | 1013.7 |
| 20260507043234 | 16 | 182 | 3.2 | 14.5 | 0.03 | 0.38 | 0.03 | 95 | 1013.5 |
| 20260507043134 | 16 | 182 | 3.2 | 14.5 | 0.03 | 0.38 | 0.03 | 95 | 1013.4 |
| 20260507043036 | 16 | 182 | 3.2 | 14.5 | 0.03 | 0.38 | 0.03 | 95 | 1013.3 |
| 20260507042934 | 16 | 182 | 4.8 | 14.5 | 0.03 | 0.38 | 0.03 | 95 | 1013.3 |
| 20260507042834 | 16 | 183 | 4.8 | 14.5 | 0.03 | 0.38 | 0.03 | 95 | 1013.1 |
| 20260507042734 | 16 | 183 | 4.8 | 14.5 | 0.03 | 0.38 | 0.03 | 95 | 1013.0 |
| 20260507042634 | 16 | 183 | 4.8 | 14.5 | 0.00 | 0.36 | 0.03 | 95 | 1013.0 |
| 20260507042535 | 16 | 168 | 4.8 | 14.5 | 0.00 | 0.36 | 0.00 | 95 | 1013.2 |
| 20260507042435 | 16 | 169 | 3.2 | 14.5 | 0.00 | 0.36 | 0.00 | 95 | 1013.2 |
| 20260507042335 | 16 | 166 | 3.2 | 14.5 | 0.00 | 0.36 | 0.00 | 95 | 1013.2 |
| 20260507042235 | 16 | 166 | 3.2 | 14.5 | 0.00 | 0.36 | 0.00 | 95 | 1013.1 |
| 20260507042135 | 16 | 169 | 3.2 | 14.5 | 0.00 | 0.36 | 0.00 | 95 | 1013.1 |
| 20260507042034 | 16 | 168 | 3.2 | 14.5 | 0.00 | 0.36 | 0.00 | 95 | 1013.1 |
| 20260507041934 | 16 | 150 | 3.2 | 11.3 | 0.00 | 0.36 | 0.00 | 95 | 1013.1 |
| 20260507041834 | 16 | 132 | 3.2 | 11.3 | 0.00 | 0.36 | 0.00 | 95 | 1013.2 |
| 20260507041736 | 16 | 167 | 3.2 | 11.3 | 0.00 | 0.36 | 0.00 | 95 | 1013.5 |
| 20260507041635 | 16 | 162 | 3.2 | 8.0 | 0.00 | 0.36 | 0.00 | 95 | 1013.7 |
| 20260507041535 | 16 | 162 | 3.2 | 8.0 | 0.00 | 0.36 | 0.00 | 95 | 1013.7 |
| 20260507041435 | 16 | 162 | 3.2 | 8.0 | 0.00 | 0.36 | 0.00 | 95 | 1013.4 |
| 20260507041335 | 16 | 162 | 3.2 | 8.0 | 0.00 | 0.36 | 0.00 | 95 | 1013.2 |
| 20260507041235 | 16 | 162 | 3.2 | 8.0 | 0.00 | 0.36 | 0.00 | 95 | 1013.1 |
| 20260507041135 | 16 | 160 | 4.8 | 8.0 | 0.00 | 0.36 | 0.00 | 95 | 1013.0 |
| 20260507041035 | 16 | 157 | 4.8 | 9.7 | 0.00 | 0.36 | 0.00 | 95 | 1012.7 |
| 20260507040934 | 16 | 157 | 4.8 | 9.7 | 0.00 | 0.36 | 0.00 | 95 | 1012.6 |
| 20260507040836 | 16 | 166 | 4.8 | 9.7 | 0.00 | 0.36 | 0.00 | 95 | 1012.8 |
| 20260507040734 | 16 | 166 | 4.8 | 9.7 | 0.00 | 0.36 | 0.00 | 95 | 1012.8 |
| 20260507040635 | 16 | 168 | 4.8 | 9.7 | 0.00 | 0.36 | 0.00 | 95 | 1012.9 |
| 20260507040536 | 16 | 171 | 4.8 | 9.7 | 0.00 | 0.36 | 0.00 | 95 | 1013.0 |
| 20260507040434 | 16 | 171 | 4.8 | 9.7 | 0.00 | 0.36 | 0.00 | 95 | 1012.9 |
| 20260507040336 | 16 | 176 | 4.8 | 9.7 | 0.00 | 0.36 | 0.00 | 95 | 1012.9 |
| 20260507040235 | 16 | 177 | 4.8 | 9.7 | 0.00 | 0.36 | 0.00 | 95 | 1012.8 |
| 20260507040126 | 16 | 177 | 4.8 | 9.7 | 0.00 | 0.36 | 0.00 | 95 | 1012.6 |
| 20260507040026 | 16 | 157 | 4.8 | 14.5 | 0.00 | 0.36 | 0.00 | 95 | 1012.5 |
| 20260507035928 | 16 | 147 | 4.8 | 14.5 | 0.00 | 0.36 | 0.36 | 95 | 1012.5 |
| 20260507035826 | 16 | 136 | 4.8 | 14.5 | 0.00 | 0.36 | 0.36 | 95 | 1012.6 |
| 20260507035728 | 16 | 178 | 3.2 | 14.5 | 0.00 | 0.36 | 0.36 | 95 | 1012.8 |
| 20260507035620 | 16 | 169 | 3.2 | 14.5 | 0.00 | 0.36 | 0.36 | 95 | 1012.9 |
| 20260507035521 | 16 | 169 | 3.2 | 14.5 | 0.00 | 0.36 | 0.36 | 95 | 1013.1 |
| 20260507035422 | 16 | 153 | 3.2 | 14.5 | 0.00 | 0.36 | 0.36 | 95 | 1013.1 |
| 20260507035319 | 16 | 163 | 3.2 | 14.5 | 0.00 | 0.36 | 0.36 | 95 | 1013.1 |
| 20260507035218 | 16 | 159 | 3.2 | 14.5 | 0.00 | 0.36 | 0.36 | 95 | 1013.1 |
| 20260507035110 | 16 | 153 | 3.2 | 14.5 | 0.00 | 0.36 | 0.36 | 95 | 1013.0 |
| 20260507035012 | 16 | 169 | 3.2 | 11.3 | 0.00 | 0.36 | 0.36 | 95 | 1013.2 |
| 20260507034912 | 16 | 170 | 3.2 | 11.3 | 0.00 | 0.36 | 0.36 | 95 | 1013.1 |
| 20260507034812 | 16 | 178 | 1.6 | 11.3 | 0.00 | 0.36 | 0.36 | 95 | 1013.1 |
| 20260507034712 | 16 | 211 | 1.6 | 11.3 | 0.00 | 0.36 | 0.36 | 95 | 1013.1 |
| 20260507034605 | 16 | 212 | 1.6 | 11.3 | 0.00 | 0.36 | 0.36 | 95 | 1012.9 |
| 20260507034505 | 16 | 189 | 1.6 | 9.7 | 0.00 | 0.36 | 0.36 | 95 | 1012.8 |
| 20260507034406 | 16 | 167 | 1.6 | 9.7 | 0.00 | 0.36 | 0.36 | 95 | 1012.9 |
| 20260507034305 | 16 | 234 | 1.6 | 9.7 | 0.00 | 0.36 | 0.36 | 95 | 1012.9 |
| 20260507034205 | 16 | 107 | 1.6 | 9.7 | 0.00 | 0.36 | 0.36 | 95 | 1012.9 |
| 20260507034100 | 16 | 119 | 3.2 | 9.7 | 0.00 | 0.36 | 0.36 | 95 | 1013.0 |
| 20260507034000 | 16 | 118 | 3.2 | 11.3 | 0.00 | 0.36 | 0.36 | 95 | 1013.0 |
| 20260507033902 | 16 | 165 | 3.2 | 11.3 | 0.03 | 0.36 | 0.36 | 95 | 1012.9 |
| 20260507033801 | 16 | 164 | 3.2 | 11.3 | 0.03 | 0.36 | 0.36 | 95 | 1012.9 |
| 20260507033701 | 16 | 164 | 3.2 | 11.3 | 0.03 | 0.36 | 0.36 | 95 | 1012.8 |
| 20260507033602 | 16 | 167 | 3.2 | 11.3 | 0.03 | 0.36 | 0.36 | 95 | 1012.8 |
| 20260507033502 | 16 | 174 | 3.2 | 11.3 | 0.03 | 0.36 | 0.36 | 95 | 1012.8 |
| 20260507033358 | 16 | 181 | 3.2 | 11.3 | 0.03 | 0.36 | 0.36 | 95 | 1012.7 |
| 20260507033259 | 16 | 182 | 3.2 | 11.3 | 0.05 | 0.36 | 0.36 | 95 | 1012.7 |
| 20260507033202 | 16 | 184 | 4.8 | 11.3 | 0.05 | 0.36 | 0.36 | 95 | 1012.5 |
| 20260507033058 | 16 | 184 | 4.8 | 12.9 | 0.05 | 0.36 | 0.36 | 95 | 1012.5 |
| 20260507032958 | 16 | 163 | 4.8 | 12.9 | 0.05 | 0.36 | 0.36 | 95 | 1012.5 |
| 20260507032859 | 16 | 164 | 4.8 | 16.1 | 0.05 | 0.36 | 0.36 | 95 | 1012.4 |
| 20260507032658 | 16 | 150 | 4.8 | 16.1 | 0.05 | 0.36 | 0.36 | 95 | 1012.5 |
| 20260507032558 | 16 | 142 | 4.8 | 16.1 | 0.05 | 0.36 | 0.36 | 95 | 1012.5 |
| 20260507032459 | 16 | 155 | 4.8 | 16.1 | 0.05 | 0.36 | 0.36 | 95 | 1012.5 |
| 20260507032355 | 16 | 176 | 4.8 | 16.1 | 0.05 | 0.36 | 0.36 | 94 | 1012.6 |
| 20260507032255 | 16 | 166 | 4.8 | 16.1 | 0.05 | 0.36 | 0.36 | 94 | 1012.6 |
| 20260507032154 | 16 | 138 | 4.8 | 16.1 | 0.05 | 0.36 | 0.36 | 94 | 1012.6 |
| 20260507032054 | 16 | 201 | 4.8 | 16.1 | 0.05 | 0.36 | 0.36 | 94 | 1012.5 |
| 20260507031954 | 16 | 192 | 4.8 | 16.1 | 0.05 | 0.36 | 0.36 | 94 | 1012.5 |
| 20260507031856 | 16 | 255 | 4.8 | 16.1 | 0.05 | 0.36 | 0.36 | 94 | 1012.5 |
| 20260507031754 | 16 | 163 | 4.8 | 16.1 | 0.05 | 0.36 | 0.36 | 94 | 1012.4 |
| 20260507031652 | 16 | 174 | 4.8 | 14.5 | 0.08 | 0.36 | 0.36 | 94 | 1012.5 |
| 20260507031550 | 16 | 175 | 4.8 | 14.5 | 0.08 | 0.36 | 0.36 | 94 | 1012.4 |
| 20260507031450 | 16 | 224 | 6.4 | 14.5 | 0.08 | 0.36 | 0.36 | 94 | 1012.2 |
| 20260507031350 | 16 | 153 | 6.4 | 14.5 | 0.08 | 0.36 | 0.36 | 94 | 1012.2 |
| 20260507031252 | 16 | 205 | 6.4 | 14.5 | 0.08 | 0.36 | 0.36 | 94 | 1012.0 |
| 20260507031150 | 16 | 227 | 6.4 | 14.5 | 0.08 | 0.36 | 0.36 | 94 | 1011.8 |
| 20260507031048 | 16 | 179 | 6.4 | 14.5 | 0.08 | 0.36 | 0.36 | 94 | 1011.7 |
| 20260507030949 | 16 | 182 | 6.4 | 14.5 | 0.08 | 0.36 | 0.36 | 94 | 1011.6 |
| 20260507030848 | 16 | 167 | 6.4 | 14.5 | 0.08 | 0.36 | 0.36 | 94 | 1011.6 |
| 20260507030750 | 16 | 159 | 6.4 | 11.3 | 0.08 | 0.36 | 0.36 | 94 | 1011.7 |
| 20260507030644 | 16 | 204 | 4.8 | 11.3 | 0.10 | 0.36 | 0.36 | 94 | 1011.6 |
| 20260507030545 | 16 | 157 | 4.8 | 11.3 | 0.10 | 0.36 | 0.36 | 94 | 1011.7 |
| 20260507030446 | 16 | 188 | 4.8 | 12.9 | 0.10 | 0.36 | 0.36 | 94 | 1011.7 |
| 20260507030344 | 16 | 176 | 4.8 | 12.9 | 0.10 | 0.36 | 0.36 | 94 | 1011.8 |
| 20260507030245 | 16 | 162 | 4.8 | 12.9 | 0.10 | 0.36 | 0.36 | 94 | 1012.0 |
| 20260507030145 | 16 | 155 | 6.4 | 12.9 | 0.10 | 0.36 | 0.36 | 94 | 1012.0 |
| 20260507030044 | 16 | 180 | 6.4 | 12.9 | 0.10 | 0.36 | 0.36 | 94 | 1012.1 |
| 20260507025944 | 16 | 191 | 4.8 | 12.9 | 0.10 | 0.36 | 0.36 | 93 | 1012.2 |
| 20260507025842 | 16 | 191 | 4.8 | 12.9 | 0.10 | 0.36 | 0.36 | 93 | 1012.2 |
| 20260507025741 | 16 | 158 | 4.8 | 12.9 | 0.10 | 0.36 | 0.36 | 93 | 1012.2 |
| 20260507025641 | 16 | 172 | 4.8 | 12.9 | 0.10 | 0.36 | 0.36 | 93 | 1012.2 |
| 20260507025541 | 16 | 196 | 4.8 | 12.9 | 0.10 | 0.36 | 0.36 | 93 | 1012.3 |
| 20260507025440 | 16 | 165 | 4.8 | 12.9 | 0.10 | 0.36 | 0.36 | 94 | 1012.3 |
| 20260507025340 | 16 | 184 | 4.8 | 12.9 | 0.10 | 0.36 | 0.36 | 94 | 1012.3 |
| 20260507025240 | 16 | 157 | 4.8 | 12.9 | 0.10 | 0.36 | 0.36 | 94 | 1012.3 |
| 20260507025140 | 16 | 175 | 4.8 | 12.9 | 0.10 | 0.36 | 0.36 | 94 | 1012.3 |
| 20260507025041 | 16 | 158 | 4.8 | 12.9 | 0.10 | 0.36 | 0.36 | 94 | 1012.3 |
| 20260507024941 | 16 | 184 | 4.8 | 12.9 | 0.10 | 0.36 | 0.36 | 94 | 1012.3 |
| 20260507024841 | 16 | 185 | 4.8 | 12.9 | 0.10 | 0.36 | 0.36 | 94 | 1012.5 |
| 20260507024742 | 16 | 187 | 4.8 | 12.9 | 0.10 | 0.36 | 0.36 | 94 | 1012.6 |
| 20260507024639 | 16 | 188 | 3.2 | 12.9 | 0.10 | 0.36 | 0.36 | 94 | 1012.5 |
| 20260507024539 | 16 | 188 | 3.2 | 12.9 | 0.13 | 0.36 | 0.36 | 94 | 1012.4 |
| 20260507024440 | 16 | 146 | 3.2 | 12.9 | 0.13 | 0.36 | 0.36 | 94 | 1012.2 |
| 20260507024338 | 16 | 105 | 3.2 | 12.9 | 0.13 | 0.36 | 0.36 | 94 | 1012.2 |
| 20260507024238 | 16 | 138 | 3.2 | 12.9 | 0.13 | 0.36 | 0.36 | 94 | 1012.6 |
| 20260507024139 | 16 | 135 | 1.6 | 12.9 | 0.13 | 0.36 | 0.36 | 94 | 1013.2 |
| 20260507024039 | 16 | 111 | 1.6 | 9.7 | 0.13 | 0.36 | 0.36 | 94 | 1013.5 |
| 20260507023938 | 16 | 104 | 1.6 | 9.7 | 0.13 | 0.36 | 0.36 | 94 | 1013.8 |
| 20260507023838 | 16 | 341 | 1.6 | 9.7 | 0.10 | 0.33 | 0.36 | 94 | 1013.9 |
| 20260507023738 | 16 | 317 | 1.6 | 9.7 | 0.10 | 0.33 | 0.33 | 94 | 1014.0 |
| 20260507023638 | 16 | 180 | 1.6 | 9.7 | 0.10 | 0.33 | 0.33 | 94 | 1013.9 |
| 20260507023537 | 16 | 180 | 3.2 | 9.7 | 0.10 | 0.33 | 0.33 | 94 | 1013.9 |
| 20260507023437 | 16 | 186 | 3.2 | 9.7 | 0.10 | 0.33 | 0.33 | 94 | 1014.0 |
| 20260507023337 | 16 | 180 | 1.6 | 6.4 | 0.10 | 0.33 | 0.33 | 94 | 1014.1 |
| 20260507023237 | 16 | 88 | 1.6 | 6.4 | 0.08 | 0.30 | 0.33 | 94 | 1014.1 |
| 20260507023138 | 16 | 120 | 1.6 | 6.4 | 0.08 | 0.30 | 0.30 | 94 | 1014.0 |
| 20260507023037 | 16 | 87 | 1.6 | 4.8 | 0.08 | 0.30 | 0.30 | 94 | 1014.0 |
| 20260507022936 | 16 | 114 | 1.6 | 4.8 | 0.08 | 0.30 | 0.30 | 94 | 1013.9 |
| 20260507022837 | 16 | 113 | 1.6 | 6.4 | 0.08 | 0.30 | 0.30 | 94 | 1013.9 |
| 20260507022736 | 16 | 105 | 1.6 | 6.4 | 0.08 | 0.30 | 0.30 | 94 | 1013.8 |
| 20260507022637 | 16 | 97 | 3.2 | 6.4 | 0.08 | 0.30 | 0.30 | 94 | 1013.8 |
| 20260507022537 | 16 | 85 | 3.2 | 11.3 | 0.08 | 0.30 | 0.30 | 94 | 1013.9 |
| 20260507022436 | 16 | 103 | 3.2 | 11.3 | 0.08 | 0.30 | 0.30 | 94 | 1013.8 |
| 20260507022336 | 16 | 103 | 3.2 | 11.3 | 0.08 | 0.30 | 0.30 | 94 | 1013.5 |
| 20260507022237 | 16 | 103 | 3.2 | 11.3 | 0.08 | 0.30 | 0.30 | 93 | 1013.5 |
| 20260507022136 | 16 | 169 | 3.2 | 11.3 | 0.08 | 0.30 | 0.30 | 93 | 1013.5 |
| 20260507022038 | 16 | 169 | 3.2 | 11.3 | 0.08 | 0.30 | 0.30 | 93 | 1013.7 |
| 20260507021937 | 17 | 169 | 3.2 | 11.3 | 0.08 | 0.30 | 0.30 | 94 | 1013.7 |
| 20260507021836 | 17 | 175 | 3.2 | 11.3 | 0.08 | 0.30 | 0.30 | 93 | 1013.7 |
| 20260507021736 | 16 | 169 | 3.2 | 11.3 | 0.08 | 0.30 | 0.30 | 94 | 1013.7 |
| 20260507021636 | 16 | 143 | 1.6 | 11.3 | 0.05 | 0.28 | 0.30 | 94 | 1013.5 |
| 20260507021537 | 17 | 159 | 1.6 | 8.0 | 0.05 | 0.28 | 0.28 | 94 | 1013.7 |
| 20260507021437 | 17 | 153 | 1.6 | 6.4 | 0.05 | 0.28 | 0.28 | 94 | 1013.7 |
| 20260507021336 | 17 | 109 | 1.6 | 4.8 | 0.05 | 0.28 | 0.28 | 94 | 1013.5 |
| 20260507021237 | 17 | 109 | 1.6 | 6.4 | 0.05 | 0.28 | 0.28 | 94 | 1013.7 |
| 20260507021136 | 17 | 109 | 1.6 | 6.4 | 0.05 | 0.28 | 0.28 | 93 | 1013.5 |
| 20260507021037 | 17 | 98 | 1.6 | 6.4 | 0.05 | 0.28 | 0.28 | 94 | 1013.5 |
| 20260507020938 | 17 | 51 | 1.6 | 6.4 | 0.05 | 0.28 | 0.28 | 94 | 1013.5 |
| 20260507020837 | 17 | 34 | 3.2 | 6.4 | 0.05 | 0.28 | 0.28 | 94 | 1013.5 |
| 20260507020736 | 17 | 227 | 3.2 | 6.4 | 0.05 | 0.28 | 0.28 | 93 | 1013.5 |
| 20260507020637 | 17 | 200 | 3.2 | 6.4 | 0.03 | 0.25 | 0.25 | 94 | 1013.5 |
| 20260507020537 | 17 | 133 | 3.2 | 8.0 | 0.03 | 0.25 | 0.25 | 93 | 1013.5 |
| 20260507020432 | 17 | 134 | 3.2 | 11.3 | 0.03 | 0.25 | 0.25 | 94 | 1013.5 |
| 20260507020333 | 17 | 186 | 3.2 | 11.3 | 0.03 | 0.25 | 0.25 | 94 | 1013.4 |
| 20260507020233 | 17 | 171 | 3.2 | 11.3 | 0.03 | 0.25 | 0.25 | 93 | 1013.4 |
| 20260507020133 | 17 | 246 | 3.2 | 11.3 | 0.03 | 0.25 | 0.25 | 93 | 1013.4 |
| 20260507020034 | 17 | 97 | 3.2 | 11.3 | 0.05 | 0.25 | 0.25 | 94 | 1013.4 |
| 20260507015932 | 17 | 96 | 3.2 | 11.3 | 0.05 | 0.25 | 0.25 | 94 | 1013.5 |
| 20260507015833 | 17 | 94 | 3.2 | 11.3 | 0.05 | 0.25 | 0.25 | 93 | 1013.5 |
| 20260507015732 | 17 | 348 | 3.2 | 11.3 | 0.05 | 0.25 | 0.25 | 94 | 1013.4 |
| 20260507015634 | 17 | 216 | 3.2 | 11.3 | 0.05 | 0.25 | 0.25 | 94 | 1013.5 |
| 20260507015533 | 17 | 186 | 3.2 | 11.3 | 0.05 | 0.25 | 0.25 | 94 | 1013.3 |
| 20260507015432 | 17 | 135 | 3.2 | 11.3 | 0.05 | 0.25 | 0.25 | 94 | 1013.3 |
| 20260507015332 | 17 | 61 | 3.2 | 11.3 | 0.05 | 0.25 | 0.25 | 94 | 1013.4 |
| 20260507015234 | 17 | 225 | 3.2 | 9.7 | 0.05 | 0.25 | 0.25 | 94 | 1013.5 |
| 20260507015133 | 17 | 97 | 3.2 | 8.0 | 0.05 | 0.25 | 0.25 | 94 | 1013.5 |
| 20260507015033 | 17 | 184 | 1.6 | 8.0 | 0.05 | 0.25 | 0.25 | 94 | 1013.4 |
| 20260507014932 | 17 | 213 | 3.2 | 8.0 | 0.05 | 0.25 | 0.25 | 94 | 1013.4 |
| 20260507014833 | 17 | 170 | 3.2 | 8.0 | 0.05 | 0.25 | 0.25 | 94 | 1013.5 |
| 20260507014732 | 17 | 141 | 3.2 | 8.0 | 0.05 | 0.25 | 0.25 | 94 | 1013.5 |
| 20260507014632 | 17 | 180 | 1.6 | 8.0 | 0.05 | 0.25 | 0.25 | 94 | 1013.5 |
| 20260507014532 | 17 | 26 | 3.2 | 8.0 | 0.03 | 0.23 | 0.25 | 94 | 1013.5 |
| 20260507014432 | 17 | 345 | 3.2 | 9.7 | 0.03 | 0.23 | 0.23 | 94 | 1013.4 |
| 20260507014334 | 17 | 345 | 3.2 | 9.7 | 0.03 | 0.23 | 0.23 | 94 | 1013.4 |
| 20260507014233 | 17 | 91 | 3.2 | 9.7 | 0.03 | 0.23 | 0.23 | 94 | 1013.5 |
| 20260507014132 | 17 | 108 | 3.2 | 11.3 | 0.03 | 0.23 | 0.23 | 94 | 1013.4 |
| 20260507014034 | 17 | 74 | 3.2 | 11.3 | 0.03 | 0.23 | 0.23 | 94 | 1013.5 |
| 20260507013933 | 17 | 257 | 3.2 | 11.3 | 0.03 | 0.23 | 0.23 | 94 | 1013.5 |
| 20260507013832 | 17 | 178 | 3.2 | 11.3 | 0.05 | 0.23 | 0.23 | 94 | 1013.5 |
| 20260507013733 | 17 | 69 | 3.2 | 11.3 | 0.05 | 0.23 | 0.23 | 94 | 1013.5 |
| 20260507013632 | 17 | 355 | 3.2 | 11.3 | 0.05 | 0.23 | 0.23 | 93 | 1013.5 |
| 20260507013534 | 17 | 75 | 3.2 | 11.3 | 0.05 | 0.23 | 0.23 | 93 | 1013.4 |
| 20260507013433 | 17 | 194 | 3.2 | 11.3 | 0.05 | 0.23 | 0.23 | 93 | 1013.3 |
| 20260507013332 | 17 | 30 | 3.2 | 11.3 | 0.05 | 0.23 | 0.23 | 94 | 1013.3 |
| 20260507013234 | 17 | 22 | 3.2 | 11.3 | 0.05 | 0.23 | 0.23 | 93 | 1013.3 |
| 20260507013129 | 17 | 271 | 3.2 | 8.0 | 0.05 | 0.23 | 0.23 | 93 | 1013.2 |
| 20260507013029 | 17 | 274 | 3.2 | 8.0 | 0.05 | 0.23 | 0.23 | 94 | 1013.2 |
| 20260507012929 | 17 | 211 | 3.2 | 8.0 | 0.05 | 0.23 | 0.23 | 93 | 1013.1 |
| 20260507012828 | 17 | 101 | 3.2 | 8.0 | 0.05 | 0.23 | 0.23 | 93 | 1013.1 |
| 20260507012728 | 17 | 105 | 3.2 | 8.0 | 0.05 | 0.23 | 0.23 | 93 | 1013.0 |
| 20260507012629 | 17 | 209 | 1.6 | 8.0 | 0.05 | 0.23 | 0.23 | 93 | 1013.1 |
| 20260507012528 | 17 | 182 | 1.6 | 8.0 | 0.05 | 0.23 | 0.23 | 93 | 1013.1 |
| 20260507012428 | 17 | 184 | 1.6 | 8.0 | 0.05 | 0.23 | 0.23 | 93 | 1013.2 |
| 20260507012328 | 17 | 251 | 1.6 | 6.4 | 0.05 | 0.23 | 0.23 | 93 | 1013.1 |
| 20260507012228 | 17 | 73 | 1.6 | 6.4 | 0.08 | 0.23 | 0.23 | 93 | 1013.0 |
| 20260507012128 | 17 | 355 | 1.6 | 6.4 | 0.08 | 0.23 | 0.23 | 93 | 1012.9 |
| 20260507012030 | 17 | 355 | 1.6 | 6.4 | 0.08 | 0.23 | 0.23 | 93 | 1012.9 |
| 20260507011929 | 17 | 182 | 1.6 | 16.1 | 0.08 | 0.23 | 0.23 | 93 | 1012.9 |
| 20260507011829 | 17 | 163 | 1.6 | 16.1 | 0.08 | 0.23 | 0.23 | 93 | 1012.9 |
| 20260507011729 | 17 | 163 | 1.6 | 16.1 | 0.08 | 0.23 | 0.23 | 93 | 1012.8 |
| 20260507011630 | 17 | 150 | 3.2 | 16.1 | 0.08 | 0.23 | 0.23 | 93 | 1012.6 |
| 20260507011528 | 17 | 150 | 3.2 | 16.1 | 0.08 | 0.23 | 0.23 | 93 | 1012.5 |
| 20260507011429 | 17 | 149 | 3.2 | 16.1 | 0.10 | 0.23 | 0.23 | 93 | 1012.5 |
| 20260507011328 | 17 | 151 | 3.2 | 16.1 | 0.10 | 0.23 | 0.23 | 93 | 1012.5 |
| 20260507011229 | 17 | 177 | 3.2 | 16.1 | 0.10 | 0.23 | 0.23 | 93 | 1012.5 |
| 20260507011128 | 17 | 177 | 3.2 | 16.1 | 0.10 | 0.23 | 0.23 | 93 | 1012.6 |
| 20260507011028 | 17 | 194 | 3.2 | 16.1 | 0.10 | 0.23 | 0.23 | 93 | 1012.5 |
| 20260507010928 | 17 | 98 | 3.2 | 11.3 | 0.10 | 0.23 | 0.23 | 93 | 1012.5 |
| 20260507010830 | 17 | 94 | 3.2 | 11.3 | 0.10 | 0.23 | 0.23 | 93 | 1012.6 |
| 20260507010728 | 17 | 346 | 3.2 | 11.3 | 0.10 | 0.23 | 0.23 | 93 | 1012.5 |
| 20260507010630 | 17 | 191 | 3.2 | 11.3 | 0.10 | 0.23 | 0.23 | 93 | 1012.4 |
| 20260507010521 | 17 | 312 | 3.2 | 9.7 | 0.10 | 0.23 | 0.23 | 93 | 1012.4 |
| 20260507010421 | 17 | 101 | 3.2 | 11.3 | 0.10 | 0.23 | 0.23 | 93 | 1012.3 |
| 20260507010321 | 17 | 128 | 3.2 | 11.3 | 0.10 | 0.23 | 0.23 | 93 | 1012.3 |
| 20260507010222 | 17 | 136 | 4.8 | 11.3 | 0.13 | 0.23 | 0.23 | 93 | 1012.4 |
| 20260507010122 | 17 | 87 | 4.8 | 11.3 | 0.10 | 0.20 | 0.23 | 93 | 1012.3 |
| 20260507010021 | 17 | 150 | 4.8 | 11.3 | 0.10 | 0.20 | 0.20 | 93 | 1012.3 |
| 20260507005921 | 17 | 141 | 4.8 | 11.3 | 0.10 | 0.20 | 0.20 | 93 | 1012.3 |
| 20260507005821 | 17 | 143 | 4.8 | 11.3 | 0.10 | 0.20 | 0.20 | 93 | 1012.3 |
| 20260507005720 | 17 | 144 | 4.8 | 11.3 | 0.10 | 0.20 | 0.20 | 93 | 1012.3 |
| 20260507005620 | 17 | 148 | 4.8 | 11.3 | 0.10 | 0.20 | 0.20 | 93 | 1012.3 |
| 20260507005520 | 17 | 148 | 4.8 | 11.3 | 0.10 | 0.20 | 0.20 | 93 | 1012.4 |
| 20260507005421 | 17 | 177 | 4.8 | 9.7 | 0.10 | 0.20 | 0.20 | 93 | 1012.4 |
| 20260507005321 | 17 | 215 | 4.8 | 11.3 | 0.10 | 0.20 | 0.20 | 93 | 1012.4 |
| 20260507005222 | 17 | 130 | 4.8 | 12.9 | 0.10 | 0.20 | 0.20 | 93 | 1012.4 |
| 20260507005121 | 17 | 182 | 4.8 | 12.9 | 0.10 | 0.20 | 0.20 | 93 | 1012.4 |
| 20260507005020 | 17 | 149 | 4.8 | 14.5 | 0.10 | 0.20 | 0.20 | 93 | 1012.4 |
| 20260507004820 | 17 | 165 | 4.8 | 14.5 | 0.10 | 0.20 | 0.20 | 93 | 1012.4 |
| 20260507004721 | 17 | 165 | 6.4 | 14.5 | 0.10 | 0.20 | 0.20 | 93 | 1012.5 |
| 20260507004620 | 17 | 134 | 4.8 | 14.5 | 0.10 | 0.20 | 0.20 | 93 | 1012.5 |
| 20260507004520 | 17 | 138 | 6.4 | 14.5 | 0.10 | 0.20 | 0.20 | 93 | 1012.5 |
| 20260507004421 | 17 | 274 | 6.4 | 14.5 | 0.10 | 0.20 | 0.20 | 93 | 1012.4 |
| 20260507004321 | 17 | 136 | 6.4 | 14.5 | 0.10 | 0.20 | 0.20 | 93 | 1012.5 |
| 20260507004221 | 17 | 178 | 6.4 | 20.9 | 0.10 | 0.20 | 0.20 | 93 | 1012.4 |
| 20260507004121 | 17 | 141 | 6.4 | 20.9 | 0.10 | 0.20 | 0.20 | 93 | 1012.4 |
| 20260507004021 | 17 | 165 | 6.4 | 20.9 | 0.13 | 0.20 | 0.20 | 93 | 1012.5 |
| 20260507003920 | 17 | 168 | 8.0 | 20.9 | 0.13 | 0.20 | 0.20 | 93 | 1012.6 |
| 20260507003821 | 17 | 166 | 8.0 | 20.9 | 0.10 | 0.18 | 0.20 | 93 | 1012.6 |
| 20260507003721 | 17 | 77 | 8.0 | 20.9 | 0.10 | 0.18 | 0.18 | 93 | 1012.6 |
| 20260507003621 | 17 | 150 | 8.0 | 20.9 | 0.10 | 0.18 | 0.18 | 93 | 1012.6 |
| 20260507003522 | 17 | 161 | 8.0 | 20.9 | 0.10 | 0.18 | 0.18 | 93 | 1012.5 |
| 20260507003420 | 17 | 173 | 8.0 | 20.9 | 0.10 | 0.18 | 0.18 | 93 | 1012.4 |
| 20260507003322 | 17 | 148 | 8.0 | 20.9 | 0.10 | 0.18 | 0.18 | 93 | 1012.5 |
| 20260507003216 | 17 | 182 | 8.0 | 19.3 | 0.10 | 0.18 | 0.18 | 93 | 1012.5 |
| 20260507003118 | 17 | 162 | 8.0 | 19.3 | 0.10 | 0.18 | 0.18 | 93 | 1012.6 |
| 20260507003017 | 17 | 138 | 8.0 | 19.3 | 0.10 | 0.18 | 0.18 | 93 | 1012.4 |
| 20260507002916 | 17 | 160 | 8.0 | 16.1 | 0.10 | 0.18 | 0.18 | 93 | 1012.5 |
| 20260507002817 | 17 | 183 | 8.0 | 16.1 | 0.10 | 0.18 | 0.18 | 93 | 1012.6 |
| 20260507002716 | 17 | 171 | 8.0 | 16.1 | 0.10 | 0.18 | 0.18 | 93 | 1012.4 |
| 20260507002617 | 17 | 163 | 8.0 | 16.1 | 0.10 | 0.18 | 0.18 | 93 | 1012.5 |
| 20260507002517 | 17 | 158 | 8.0 | 17.7 | 0.10 | 0.18 | 0.18 | 93 | 1012.6 |
| 20260507002417 | 17 | 148 | 8.0 | 17.7 | 0.10 | 0.18 | 0.18 | 93 | 1012.6 |
| 20260507002316 | 17 | 169 | 8.0 | 17.7 | 0.08 | 0.15 | 0.18 | 93 | 1012.5 |
| 20260507002216 | 17 | 139 | 6.4 | 17.7 | 0.08 | 0.15 | 0.15 | 93 | 1012.4 |
| 20260507002116 | 17 | 177 | 6.4 | 17.7 | 0.08 | 0.15 | 0.15 | 93 | 1012.4 |
| 20260507002017 | 17 | 143 | 6.4 | 17.7 | 0.08 | 0.15 | 0.15 | 93 | 1012.4 |
| 20260507001916 | 17 | 187 | 6.4 | 17.7 | 0.08 | 0.15 | 0.15 | 93 | 1012.4 |
| 20260507001816 | 17 | 163 | 6.4 | 17.7 | 0.08 | 0.15 | 0.15 | 93 | 1012.4 |
| 20260507001718 | 17 | 144 | 6.4 | 17.7 | 0.08 | 0.15 | 0.15 | 92 | 1012.7 |
| 20260507001615 | 17 | 161 | 6.4 | 17.7 | 0.08 | 0.15 | 0.15 | 92 | 1012.7 |
| 20260507001515 | 17 | 143 | 6.4 | 17.7 | 0.08 | 0.15 | 0.15 | 93 | 1012.7 |
| 20260507001415 | 17 | 216 | 6.4 | 17.7 | 0.05 | 0.13 | 0.13 | 92 | 1012.7 |
| 20260507001311 | 17 | 80 | 6.4 | 17.7 | 0.05 | 0.13 | 0.13 | 92 | 1012.8 |
| 20260507001208 | 17 | 272 | 8.0 | 17.7 | 0.05 | 0.13 | 0.13 | 92 | 1012.6 |
| 20260507001108 | 17 | 116 | 8.0 | 17.7 | 0.05 | 0.13 | 0.13 | 92 | 1012.5 |
| 20260507001008 | 17 | 171 | 6.4 | 14.5 | 0.05 | 0.13 | 0.13 | 92 | 1012.5 |
| 20260507000909 | 17 | 121 | 6.4 | 14.5 | 0.05 | 0.13 | 0.13 | 92 | 1012.8 |
| 20260507000804 | 17 | 156 | 6.4 | 14.5 | 0.05 | 0.13 | 0.13 | 92 | 1012.6 |
| 20260507000702 | 17 | 165 | 4.8 | 14.5 | 0.05 | 0.13 | 0.13 | 92 | 1012.8 |
| 20260507000602 | 17 | 139 | 4.8 | 12.9 | 0.05 | 0.13 | 0.13 | 92 | 1012.8 |
| 20260507000503 | 17 | 127 | 4.8 | 12.9 | 0.05 | 0.13 | 0.13 | 92 | 1012.8 |
| 20260507000405 | 17 | 156 | 4.8 | 11.3 | 0.05 | 0.13 | 0.13 | 92 | 1012.8 |
| 20260507000253 | 17 | 207 | 4.8 | 12.9 | 0.05 | 0.13 | 0.13 | 92 | 1012.8 |
| 20260507000153 | 17 | 167 | 6.4 | 12.9 | 0.03 | 0.10 | 0.13 | 92 | 1012.8 |
| 20260507000053 | 17 | 169 | 6.4 | 12.9 | 0.03 | 0.10 | 0.10 | 92 | 1012.8 |
| 20260506235952 | 17 | 168 | 6.4 | 12.9 | 0.03 | 0.10 | 0.10 | 92 | 1012.8 |
| 20260506235853 | 17 | 157 | 6.4 | 12.9 | 0.03 | 0.10 | 0.10 | 92 | 1012.8 |
| 20260506235749 | 17 | 167 | 6.4 | 12.9 | 0.03 | 0.10 | 0.10 | 92 | 1012.7 |
| 20260506235648 | 17 | 119 | 6.4 | 14.5 | 0.03 | 0.10 | 0.10 | 92 | 1012.6 |
| 20260506235549 | 17 | 186 | 6.4 | 14.5 | 0.03 | 0.10 | 0.10 | 92 | 1012.7 |
| 20260506235449 | 17 | 168 | 6.4 | 14.5 | 0.03 | 0.10 | 0.10 | 92 | 1012.7 |
| 20260506235346 | 17 | 159 | 6.4 | 14.5 | 0.03 | 0.10 | 0.10 | 92 | 1012.6 |
| 20260506235241 | 17 | 158 | 6.4 | 14.5 | 0.03 | 0.10 | 0.10 | 92 | 1012.5 |
| 20260506235140 | 17 | 167 | 6.4 | 14.5 | 0.03 | 0.10 | 0.10 | 91 | 1012.4 |
| 20260506235041 | 17 | 147 | 6.4 | 14.5 | 0.03 | 0.10 | 0.10 | 91 | 1012.4 |
| 20260506234941 | 17 | 145 | 6.4 | 14.5 | 0.03 | 0.10 | 0.10 | 91 | 1012.5 |
| 20260506234840 | 17 | 172 | 6.4 | 14.5 | 0.03 | 0.10 | 0.10 | 91 | 1012.5 |
| 20260506234733 | 17 | 141 | 6.4 | 14.5 | 0.03 | 0.10 | 0.10 | 91 | 1012.4 |
| 20260506234631 | 17 | 153 | 4.8 | 12.9 | 0.03 | 0.10 | 0.10 | 91 | 1012.5 |
| 20260506234530 | 17 | 167 | 4.8 | 11.3 | 0.03 | 0.10 | 0.10 | 91 | 1012.5 |
| 20260506234431 | 17 | 183 | 4.8 | 11.3 | 0.03 | 0.10 | 0.10 | 91 | 1012.5 |
| 20260506234331 | 17 | 163 | 6.4 | 17.7 | 0.03 | 0.10 | 0.10 | 91 | 1012.2 |
| 20260506234227 | 17 | 152 | 6.4 | 17.7 | 0.03 | 0.10 | 0.10 | 91 | 1012.3 |
| 20260506234124 | 17 | 158 | 6.4 | 17.7 | 0.03 | 0.10 | 0.10 | 91 | 1012.3 |
| 20260506234024 | 17 | 163 | 6.4 | 17.7 | 0.00 | 0.08 | 0.10 | 91 | 1012.3 |
| 20260506233925 | 17 | 165 | 6.4 | 17.7 | 0.00 | 0.08 | 0.08 | 91 | 1012.2 |
| 20260506233824 | 17 | 152 | 8.0 | 17.7 | 0.00 | 0.08 | 0.08 | 91 | 1012.2 |
| 20260506233720 | 17 | 185 | 8.0 | 17.7 | 0.00 | 0.08 | 0.08 | 91 | 1011.8 |
| 20260506233618 | 17 | 150 | 8.0 | 17.7 | 0.00 | 0.08 | 0.08 | 90 | 1011.7 |
| 20260506233519 | 17 | 142 | 8.0 | 17.7 | 0.00 | 0.08 | 0.08 | 90 | 1011.5 |
| 20260506233419 | 17 | 150 | 8.0 | 17.7 | 0.00 | 0.08 | 0.08 | 90 | 1011.6 |
| 20260506233318 | 17 | 146 | 8.0 | 14.5 | 0.00 | 0.08 | 0.08 | 90 | 1011.8 |
| 20260506233211 | 17 | 153 | 8.0 | 14.5 | 0.00 | 0.08 | 0.08 | 90 | 1011.8 |
| 20260506233108 | 17 | 140 | 6.4 | 14.5 | 0.00 | 0.08 | 0.08 | 90 | 1012.0 |
| 20260506233009 | 17 | 169 | 8.0 | 14.5 | 0.00 | 0.08 | 0.08 | 90 | 1011.8 |
| 20260506232908 | 17 | 157 | 6.4 | 14.5 | 0.00 | 0.08 | 0.08 | 90 | 1011.7 |
| 20260506232809 | 17 | 155 | 8.0 | 14.5 | 0.00 | 0.08 | 0.08 | 90 | 1012.0 |
| 20260506232702 | 17 | 163 | 8.0 | 14.5 | 0.00 | 0.08 | 0.08 | 90 | 1012.0 |
| 20260506232603 | 17 | 163 | 8.0 | 14.5 | 0.00 | 0.08 | 0.08 | 90 | 1012.0 |
| 20260506232504 | 17 | 150 | 8.0 | 16.1 | 0.00 | 0.08 | 0.08 | 90 | 1012.0 |
| 20260506232403 | 17 | 135 | 8.0 | 16.1 | 0.00 | 0.08 | 0.08 | 90 | 1012.1 |
| 20260506232306 | 17 | 155 | 8.0 | 16.1 | 0.00 | 0.08 | 0.08 | 90 | 1012.1 |
| 20260506232157 | 17 | 171 | 8.0 | 17.7 | 0.00 | 0.08 | 0.08 | 90 | 1012.2 |
| 20260506232056 | 17 | 159 | 6.4 | 17.7 | 0.00 | 0.08 | 0.08 | 90 | 1012.1 |
| 20260506231958 | 17 | 156 | 8.0 | 17.7 | 0.00 | 0.08 | 0.08 | 90 | 1012.1 |
| 20260506231856 | 17 | 154 | 6.4 | 17.7 | 0.00 | 0.08 | 0.08 | 90 | 1012.1 |
| 20260506231757 | 17 | 141 | 6.4 | 17.7 | 0.00 | 0.08 | 0.08 | 90 | 1012.1 |
| 20260506231648 | 17 | 148 | 6.4 | 17.7 | 0.00 | 0.08 | 0.08 | 90 | 1012.1 |
| 20260506231549 | 17 | 182 | 6.4 | 19.3 | 0.00 | 0.08 | 0.08 | 90 | 1012.2 |
| 20260506231449 | 17 | 167 | 6.4 | 19.3 | 0.00 | 0.08 | 0.08 | 90 | 1012.2 |
| 20260506231349 | 17 | 186 | 6.4 | 19.3 | 0.00 | 0.08 | 0.08 | 90 | 1012.3 |
| 20260506231246 | 18 | 151 | 6.4 | 19.3 | 0.00 | 0.08 | 0.08 | 90 | 1012.3 |
| 20260506231143 | 18 | 170 | 6.4 | 19.3 | 0.00 | 0.08 | 0.08 | 89 | 1012.2 |
| 20260506230941 | 18 | 180 | 6.4 | 19.3 | 0.00 | 0.08 | 0.08 | 89 | 1012.2 |
| 20260506230842 | 18 | 175 | 6.4 | 19.3 | 0.00 | 0.08 | 0.08 | 89 | 1012.2 |
| 20260506230741 | 18 | 169 | 6.4 | 19.3 | 0.00 | 0.08 | 0.08 | 89 | 1012.2 |
| 20260506230641 | 18 | 107 | 6.4 | 19.3 | 0.00 | 0.08 | 0.08 | 89 | 1012.2 |
| 20260506230539 | 18 | 184 | 6.4 | 12.9 | 0.00 | 0.08 | 0.08 | 89 | 1012.2 |
| 20260506230438 | 18 | 161 | 6.4 | 12.9 | 0.00 | 0.08 | 0.08 | 89 | 1012.1 |
| 20260506230336 | 18 | 150 | 6.4 | 12.9 | 0.00 | 0.08 | 0.08 | 89 | 1012.0 |
| 20260506230235 | 18 | 127 | 6.4 | 12.9 | 0.00 | 0.08 | 0.08 | 89 | 1012.1 |
| 20260506230128 | 18 | 181 | 6.4 | 12.9 | 0.00 | 0.08 | 0.08 | 89 | 1012.1 |
| 20260506230026 | 18 | 136 | 6.4 | 12.9 | 0.00 | 0.08 | 0.08 | 89 | 1012.1 |
| 20260506225927 | 18 | 151 | 6.4 | 12.9 | 0.00 | 0.08 | 0.08 | 89 | 1012.1 |
| 20260506225826 | 18 | 148 | 4.8 | 12.9 | 0.00 | 0.08 | 0.08 | 89 | 1012.2 |
| 20260506225725 | 18 | 187 | 4.8 | 12.9 | 0.00 | 0.08 | 0.08 | 89 | 1012.1 |
| 20260506225621 | 18 | 137 | 4.8 | 11.3 | 0.00 | 0.08 | 0.08 | 89 | 1012.2 |
| 20260506225520 | 18 | 164 | 4.8 | 11.3 | 0.00 | 0.08 | 0.08 | 89 | 1012.0 |
| 20260506225420 | 18 | 161 | 3.2 | 11.3 | 0.00 | 0.08 | 0.08 | 88 | 1012.0 |
| 20260506225318 | 18 | 148 | 3.2 | 11.3 | 0.00 | 0.08 | 0.08 | 88 | 1012.0 |
| 20260506225219 | 18 | 152 | 3.2 | 9.7 | 0.00 | 0.08 | 0.08 | 88 | 1012.1 |
| 20260506225118 | 18 | 154 | 3.2 | 9.7 | 0.00 | 0.08 | 0.08 | 88 | 1012.2 |
| 20260506225018 | 18 | 153 | 3.2 | 9.7 | 0.00 | 0.08 | 0.08 | 88 | 1012.3 |
| 20260506224914 | 18 | 124 | 3.2 | 8.0 | 0.00 | 0.08 | 0.08 | 88 | 1012.2 |
| 20260506224814 | 18 | 104 | 1.6 | 8.0 | 0.00 | 0.08 | 0.08 | 88 | 1012.4 |
| 20260506224713 | 18 | 128 | 1.6 | 8.0 | 0.00 | 0.08 | 0.08 | 88 | 1012.4 |
| 20260506224602 | 18 | 96 | 3.2 | 8.0 | 0.00 | 0.08 | 0.08 | 88 | 1012.4 |
| 20260506224504 | 18 | 96 | 3.2 | 9.7 | 0.00 | 0.08 | 0.08 | 88 | 1012.3 |
| 20260506224403 | 18 | 214 | 1.6 | 9.7 | 0.00 | 0.08 | 0.08 | 88 | 1012.3 |
| 20260506224303 | 18 | 204 | 3.2 | 9.7 | 0.00 | 0.08 | 0.08 | 88 | 1012.3 |
| 20260506224203 | 18 | 176 | 3.2 | 9.7 | 0.00 | 0.08 | 0.08 | 88 | 1012.4 |
| 20260506224100 | 18 | 176 | 3.2 | 9.7 | 0.00 | 0.08 | 0.08 | 88 | 1012.4 |
| 20260506224001 | 18 | 177 | 3.2 | 9.7 | 0.00 | 0.08 | 0.08 | 88 | 1012.3 |
| 20260506223859 | 18 | 178 | 3.2 | 9.7 | 0.00 | 0.08 | 0.08 | 88 | 1012.5 |
| 20260506223759 | 18 | 178 | 3.2 | 9.7 | 0.00 | 0.08 | 0.08 | 88 | 1012.5 |
| 20260506223657 | 18 | 178 | 3.2 | 9.7 | 0.00 | 0.08 | 0.08 | 88 | 1012.5 |
| 20260506223552 | 18 | 178 | 1.6 | 9.7 | 0.00 | 0.08 | 0.08 | 88 | 1012.5 |
| 20260506223450 | 18 | 174 | 1.6 | 8.0 | 0.00 | 0.08 | 0.08 | 87 | 1012.4 |
| 20260506223351 | 18 | 174 | 1.6 | 8.0 | 0.00 | 0.08 | 0.08 | 87 | 1012.5 |
| 20260506223251 | 18 | 175 | 1.6 | 8.0 | 0.00 | 0.08 | 0.08 | 87 | 1012.6 |
| 20260506223150 | 18 | 159 | 1.6 | 8.0 | 0.00 | 0.08 | 0.08 | 87 | 1012.7 |
| 20260506223040 | 18 | 159 | 1.6 | 8.0 | 0.00 | 0.08 | 0.08 | 87 | 1012.8 |
| 20260506222942 | 18 | 156 | 1.6 | 6.4 | 0.00 | 0.08 | 0.08 | 87 | 1012.8 |
| 20260506222841 | 18 | 165 | 1.6 | 6.4 | 0.00 | 0.08 | 0.08 | 87 | 1012.9 |
| 20260506222739 | 18 | 165 | 1.6 | 6.4 | 0.00 | 0.08 | 0.08 | 87 | 1012.9 |
| 20260506222640 | 18 | 167 | 1.6 | 6.4 | 0.00 | 0.08 | 0.08 | 87 | 1013.0 |
| 20260506222536 | 18 | 88 | 1.6 | 4.8 | 0.00 | 0.08 | 0.08 | 87 | 1013.0 |
| 20260506222437 | 18 | 88 | 1.6 | 6.4 | 0.00 | 0.08 | 0.08 | 87 | 1013.0 |
| 20260506222338 | 18 | 86 | 1.6 | 6.4 | 0.00 | 0.08 | 0.08 | 87 | 1012.9 |
| 20260506222237 | 18 | 96 | 1.6 | 6.4 | 0.00 | 0.08 | 0.08 | 87 | 1012.9 |
| 20260506222134 | 18 | 132 | 1.6 | 6.4 | 0.00 | 0.08 | 0.08 | 87 | 1012.8 |
| 20260506222035 | 18 | 132 | 1.6 | 8.0 | 0.00 | 0.08 | 0.08 | 87 | 1012.8 |
| 20260506221932 | 18 | 113 | 1.6 | 8.0 | 0.00 | 0.08 | 0.08 | 87 | 1012.8 |
| 20260506221832 | 18 | 75 | 1.6 | 8.0 | 0.00 | 0.08 | 0.08 | 87 | 1013.0 |
| 20260506221731 | 18 | 225 | 1.6 | 8.0 | 0.00 | 0.08 | 0.08 | 87 | 1012.9 |
| 20260506221629 | 18 | 254 | 3.2 | 8.0 | 0.00 | 0.08 | 0.08 | 86 | 1012.9 |
| 20260506221520 | 18 | 253 | 3.2 | 8.0 | 0.00 | 0.08 | 0.08 | 86 | 1012.9 |
| 20260506221419 | 18 | 198 | 3.2 | 8.0 | 0.00 | 0.08 | 0.08 | 86 | 1012.9 |
| 20260506221319 | 18 | 176 | 3.2 | 8.0 | 0.00 | 0.08 | 0.08 | 86 | 1013.0 |
| 20260506221217 | 18 | 177 | 3.2 | 8.0 | 0.00 | 0.08 | 0.08 | 86 | 1013.0 |
| 20260506221119 | 18 | 180 | 3.2 | 8.0 | 0.00 | 0.08 | 0.08 | 86 | 1013.0 |
| 20260506221014 | 18 | 203 | 3.2 | 8.0 | 0.00 | 0.08 | 0.08 | 86 | 1012.9 |
| 20260506220914 | 18 | 203 | 3.2 | 8.0 | 0.00 | 0.08 | 0.08 | 86 | 1013.0 |
| 20260506220814 | 18 | 180 | 3.2 | 8.0 | 0.00 | 0.08 | 0.08 | 86 | 1013.1 |
| 20260506220714 | 18 | 175 | 1.6 | 8.0 | 0.00 | 0.08 | 0.08 | 86 | 1013.1 |
| 20260506220613 | 18 | 145 | 1.6 | 8.0 | 0.00 | 0.08 | 0.08 | 86 | 1013.2 |
| 20260506220509 | 18 | 181 | 1.6 | 8.0 | 0.00 | 0.08 | 0.08 | 86 | 1013.1 |
| 20260506220406 | 18 | 132 | 1.6 | 6.4 | 0.00 | 0.08 | 0.08 | 86 | 1013.1 |
| 20260506220306 | 18 | 53 | 0.0 | 6.4 | 0.00 | 0.08 | 0.08 | 86 | 1013.2 |
| 20260506220208 | 18 | 153 | 0.0 | 4.8 | 0.00 | 0.08 | 0.08 | 86 | 1013.1 |
| 20260506220105 | 18 | 282 | 1.6 | 6.4 | 0.00 | 0.08 | 0.08 | 86 | 1013.0 |
| 20260506215957 | 18 | 349 | 1.6 | 12.9 | 0.00 | 0.08 | 0.08 | 86 | 1013.0 |
| 20260506215856 | 18 | 355 | 1.6 | 12.9 | 0.00 | 0.08 | 0.08 | 86 | 1013.0 |
| 20260506215756 | 18 | 157 | 1.6 | 12.9 | 0.00 | 0.08 | 0.08 | 86 | 1013.0 |
| 20260506215657 | 18 | 181 | 1.6 | 12.9 | 0.00 | 0.08 | 0.08 | 86 | 1012.9 |
| 20260506215555 | 19 | 136 | 3.2 | 12.9 | 0.00 | 0.08 | 0.08 | 86 | 1013.0 |
| 20260506215451 | 19 | 136 | 3.2 | 12.9 | 0.00 | 0.08 | 0.08 | 86 | 1012.8 |
| 20260506215348 | 19 | 140 | 3.2 | 12.9 | 0.00 | 0.08 | 0.08 | 86 | 1012.9 |
| 20260506215249 | 19 | 142 | 3.2 | 12.9 | 0.00 | 0.08 | 0.08 | 85 | 1012.8 |
| 20260506215148 | 19 | 143 | 4.8 | 12.9 | 0.00 | 0.08 | 0.08 | 85 | 1012.9 |
| 20260506215049 | 19 | 186 | 3.2 | 11.3 | 0.00 | 0.08 | 0.08 | 85 | 1012.9 |
| 20260506214949 | 19 | 182 | 3.2 | 11.3 | 0.00 | 0.08 | 0.08 | 85 | 1012.9 |
| 20260506214847 | 19 | 178 | 3.2 | 11.3 | 0.00 | 0.08 | 0.08 | 85 | 1012.9 |
| 20260506214746 | 19 | 65 | 3.2 | 11.3 | 0.00 | 0.08 | 0.08 | 85 | 1013.0 |
| 20260506214645 | 19 | 168 | 3.2 | 11.3 | 0.00 | 0.08 | 0.08 | 85 | 1013.1 |
| 20260506214542 | 19 | 184 | 3.2 | 11.3 | 0.00 | 0.08 | 0.08 | 85 | 1013.0 |
| 20260506214433 | 19 | 135 | 3.2 | 11.3 | 0.00 | 0.08 | 0.08 | 85 | 1013.0 |
| 20260506214332 | 19 | 194 | 1.6 | 9.7 | 0.00 | 0.08 | 0.08 | 85 | 1013.2 |
| 20260506214233 | 19 | 234 | 1.6 | 9.7 | 0.00 | 0.08 | 0.08 | 85 | 1013.1 |
| 20260506214132 | 19 | 159 | 1.6 | 9.7 | 0.00 | 0.08 | 0.08 | 85 | 1013.1 |
| 20260506214032 | 19 | 175 | 1.6 | 6.4 | 0.00 | 0.08 | 0.08 | 85 | 1013.2 |
| 20260506213933 | 19 | 274 | 1.6 | 6.4 | 0.00 | 0.08 | 0.08 | 85 | 1013.1 |
| 20260506213830 | 19 | 265 | 1.6 | 11.3 | 0.00 | 0.08 | 0.08 | 85 | 1013.1 |
| 20260506213729 | 19 | 138 | 1.6 | 11.3 | 0.00 | 0.08 | 0.08 | 85 | 1013.1 |
| 20260506213629 | 19 | 138 | 3.2 | 11.3 | 0.00 | 0.08 | 0.08 | 85 | 1013.0 |
| 20260506213526 | 19 | 138 | 3.2 | 11.3 | 0.00 | 0.08 | 0.08 | 85 | 1012.9 |
| 20260506213424 | 19 | 138 | 3.2 | 11.3 | 0.00 | 0.08 | 0.08 | 85 | 1012.9 |
| 20260506213324 | 19 | 139 | 3.2 | 12.9 | 0.00 | 0.08 | 0.08 | 85 | 1012.9 |
| 20260506213222 | 19 | 139 | 3.2 | 12.9 | 0.00 | 0.08 | 0.08 | 85 | 1012.7 |
| 20260506213123 | 19 | 139 | 3.2 | 12.9 | 0.00 | 0.08 | 0.08 | 85 | 1012.8 |
| 20260506213020 | 19 | 191 | 3.2 | 12.9 | 0.00 | 0.08 | 0.08 | 85 | 1012.8 |
| 20260506212914 | 19 | 165 | 3.2 | 12.9 | 0.00 | 0.08 | 0.08 | 85 | 1012.7 |
| 20260506212814 | 19 | 140 | 3.2 | 12.9 | 0.00 | 0.08 | 0.08 | 85 | 1012.6 |
| 20260506212714 | 19 | 250 | 3.2 | 12.9 | 0.00 | 0.08 | 0.08 | 85 | 1012.7 |
| 20260506212613 | 19 | 256 | 4.8 | 12.9 | 0.00 | 0.08 | 0.08 | 85 | 1012.8 |
| 20260506212511 | 19 | 256 | 4.8 | 14.5 | 0.00 | 0.08 | 0.08 | 85 | 1012.7 |
| 20260506212404 | 19 | 249 | 4.8 | 14.5 | 0.00 | 0.08 | 0.08 | 85 | 1012.7 |
| 20260506212306 | 19 | 121 | 4.8 | 14.5 | 0.00 | 0.08 | 0.08 | 85 | 1012.6 |
| 20260506212205 | 19 | 205 | 4.8 | 14.5 | 0.00 | 0.08 | 0.08 | 85 | 1012.6 |
| 20260506212104 | 19 | 171 | 4.8 | 14.5 | 0.00 | 0.08 | 0.08 | 85 | 1012.6 |
| 20260506212005 | 19 | 175 | 4.8 | 14.5 | 0.00 | 0.08 | 0.08 | 85 | 1012.6 |
| 20260506211859 | 19 | 175 | 4.8 | 14.5 | 0.00 | 0.08 | 0.08 | 85 | 1012.6 |
| 20260506211758 | 19 | 178 | 4.8 | 14.5 | 0.00 | 0.08 | 0.08 | 85 | 1012.6 |
| 20260506211659 | 19 | 121 | 4.8 | 14.5 | 0.00 | 0.08 | 0.08 | 85 | 1012.5 |
| 20260506211558 | 19 | 169 | 4.8 | 14.5 | 0.00 | 0.08 | 0.08 | 86 | 1012.5 |
| 20260506211459 | 19 | 148 | 4.8 | 12.9 | 0.00 | 0.08 | 0.08 | 86 | 1012.5 |
| 20260506211349 | 19 | 126 | 4.8 | 14.5 | 0.00 | 0.08 | 0.08 | 86 | 1012.4 |
| 20260506211249 | 19 | 186 | 4.8 | 14.5 | 0.00 | 0.08 | 0.08 | 86 | 1012.4 |
| 20260506211148 | 19 | 186 | 4.8 | 14.5 | 0.00 | 0.08 | 0.08 | 86 | 1012.4 |
| 20260506211048 | 19 | 141 | 6.4 | 17.7 | 0.00 | 0.08 | 0.08 | 86 | 1012.4 |
| 20260506210949 | 19 | 173 | 6.4 | 19.3 | 0.00 | 0.08 | 0.08 | 86 | 1012.3 |
| 20260506210842 | 19 | 173 | 8.0 | 19.3 | 0.00 | 0.08 | 0.08 | 86 | 1012.3 |
| 20260506210742 | 19 | 176 | 8.0 | 19.3 | 0.00 | 0.08 | 0.08 | 85 | 1012.3 |
| 20260506210643 | 19 | 202 | 8.0 | 19.3 | 0.00 | 0.08 | 0.08 | 85 | 1012.2 |
| 20260506210542 | 19 | 156 | 8.0 | 19.3 | 0.00 | 0.08 | 0.08 | 85 | 1012.0 |
| 20260506210442 | 19 | 129 | 8.0 | 19.3 | 0.00 | 0.08 | 0.08 | 85 | 1012.0 |
| 20260506210339 | 19 | 117 | 6.4 | 19.3 | 0.00 | 0.08 | 0.08 | 85 | 1012.0 |
| 20260506210236 | 19 | 190 | 6.4 | 19.3 | 0.00 | 0.08 | 0.08 | 85 | 1012.0 |
| 20260506210137 | 19 | 155 | 6.4 | 19.3 | 0.00 | 0.08 | 0.08 | 85 | 1012.2 |
| 20260506210036 | 19 | 139 | 4.8 | 19.3 | 0.00 | 0.08 | 0.08 | 85 | 1012.2 |
| 20260506205938 | 19 | 190 | 3.2 | 12.9 | 0.00 | 0.08 | 0.08 | 85 | 1012.1 |
| 20260506205827 | 19 | 184 | 3.2 | 12.9 | 0.00 | 0.08 | 0.08 | 85 | 1012.2 |
| 20260506205725 | 19 | 246 | 1.6 | 12.9 | 0.00 | 0.08 | 0.08 | 85 | 1011.8 |
| 20260506205626 | 19 | 180 | 1.6 | 11.3 | 0.00 | 0.08 | 0.08 | 85 | 1011.8 |
| 20260506205528 | 19 | 151 | 0.0 | 11.3 | 0.00 | 0.08 | 0.08 | 85 | 1011.7 |
| 20260506205426 | 19 | 128 | 0.0 | 1.6 | 0.00 | 0.08 | 0.08 | 85 | 1011.7 |
| 20260506205320 | 20 | 199 | 0.0 | 0.0 | 0.00 | 0.08 | 0.08 | 84 | 1011.7 |
| 20260506205221 | 20 | 165 | 0.0 | 0.0 | 0.00 | 0.08 | 0.08 | 84 | 1011.7 |
| 20260506205121 | 20 | 168 | 0.0 | 0.0 | 0.00 | 0.08 | 0.08 | 84 | 1011.6 |
| 20260506205021 | 20 | 138 | 0.0 | 0.0 | 0.00 | 0.08 | 0.08 | 84 | 1011.6 |
| 20260506204921 | 20 | 132 | 0.0 | 0.0 | 0.00 | 0.08 | 0.08 | 84 | 1011.7 |
| 20260506204815 | 20 | 190 | 0.0 | 0.0 | 0.00 | 0.08 | 0.08 | 84 | 1011.7 |
| 20260506204714 | 20 | 188 | 0.0 | 0.0 | 0.00 | 0.08 | 0.08 | 84 | 1011.5 |
| 20260506204615 | 20 | 164 | 0.0 | 0.0 | 0.00 | 0.08 | 0.08 | 84 | 1011.5 |
| 20260506204514 | 20 | 201 | 0.0 | 0.0 | 0.00 | 0.08 | 0.08 | 84 | 1011.4 |
| 20260506204415 | 20 | 114 | 0.0 | 0.0 | 0.00 | 0.08 | 0.08 | 84 | 1011.6 |
| 20260506204304 | 20 | 165 | 0.0 | 0.0 | 0.00 | 0.08 | 0.08 | 84 | 1011.6 |
| 20260506204205 | 20 | 171 | 0.0 | 0.0 | 0.00 | 0.08 | 0.08 | 84 | 1012.0 |
| 20260506204105 | 20 | 161 | 0.0 | 0.0 | 0.00 | 0.08 | 0.08 | 84 | 1011.8 |
| 20260506204003 | 20 | 165 | 0.0 | 0.0 | 0.00 | 0.08 | 0.08 | 84 | 1011.8 |
| 20260506203904 | 20 | 186 | 0.0 | 0.0 | 0.00 | 0.08 | 0.08 | 85 | 1012.1 |
| 20260506203801 | 20 | 233 | 0.0 | 0.0 | 0.00 | 0.08 | 0.08 | 84 | 1012.1 |
| 20260506203658 | 20 | 186 | 0.0 | 0.0 | 0.00 | 0.08 | 0.08 | 84 | 1012.0 |
| 20260506203559 | 20 | 178 | 0.0 | 0.0 | 0.00 | 0.08 | 0.08 | 84 | 1012.0 |
| 20260506203457 | 20 | 195 | 0.0 | 0.0 | 0.00 | 0.08 | 0.08 | 84 | 1012.1 |
| 20260506203359 | 20 | 146 | 0.0 | 0.0 | 0.00 | 0.08 | 0.08 | 84 | 1012.0 |
| 20260506203252 | 20 | 139 | 0.0 | 0.0 | 0.00 | 0.08 | 0.08 | 84 | 1012.1 |
| 20260506203153 | 20 | 161 | 0.0 | 0.0 | 0.00 | 0.08 | 0.08 | 84 | 1012.1 |
| 20260506203053 | 20 | 155 | 0.0 | 0.0 | 0.00 | 0.08 | 0.08 | 84 | 1012.1 |
| 20260506202952 | 20 | 111 | 0.0 | 0.0 | 0.00 | 0.08 | 0.08 | 84 | 1012.2 |
| 20260506202853 | 20 | 132 | 0.0 | 0.0 | 0.00 | 0.08 | 0.08 | 84 | 1012.3 |
| 20260506202743 | 20 | 245 | 0.0 | 0.0 | 0.00 | 0.08 | 0.08 | 84 | 1012.2 |
| 20260506202642 | 20 | 145 | 0.0 | 0.0 | 0.00 | 0.08 | 0.08 | 84 | 1012.3 |
| 20260506202543 | 20 | 165 | 0.0 | 0.0 | 0.00 | 0.08 | 0.08 | 84 | 1012.4 |
| 20260506202442 | 20 | 142 | 0.0 | 0.0 | 0.00 | 0.08 | 0.08 | 84 | 1012.6 |
| 20260506202343 | 20 | 167 | 0.0 | 0.0 | 0.00 | 0.08 | 0.08 | 84 | 1012.6 |
| 20260506202238 | 20 | 180 | 0.0 | 0.0 | 0.00 | 0.08 | 0.08 | 85 | 1012.6 |
| 20260506202137 | 20 | 215 | 0.0 | 0.0 | 0.00 | 0.08 | 0.08 | 85 | 1012.7 |
| 20260506202035 | 20 | 197 | 0.0 | 0.0 | 0.00 | 0.08 | 0.08 | 85 | 1012.7 |
| 20260506201936 | 20 | 159 | 0.0 | 0.0 | 0.00 | 0.08 | 0.08 | 85 | 1012.7 |
| 20260506201837 | 20 | 192 | 0.0 | 0.0 | 0.00 | 0.08 | 0.08 | 85 | 1012.7 |
| 20260506201730 | 19 | 183 | 0.0 | 0.0 | 0.00 | 0.08 | 0.08 | 85 | 1012.8 |
| 20260506201630 | 19 | 115 | 0.0 | 0.0 | 0.00 | 0.08 | 0.08 | 84 | 1012.8 |
| 20260506201531 | 19 | 179 | 0.0 | 0.0 | 0.00 | 0.08 | 0.08 | 85 | 1012.7 |
| 20260506201430 | 19 | 106 | 0.0 | 0.0 | 0.00 | 0.08 | 0.08 | 85 | 1012.7 |
| 20260506201331 | 19 | 169 | 0.0 | 0.0 | 0.00 | 0.08 | 0.08 | 85 | 1012.7 |
| 20260506201222 | 19 | 168 | 0.0 | 0.0 | 0.00 | 0.08 | 0.08 | 85 | 1012.7 |
| 20260506201121 | 19 | 99 | 0.0 | 0.0 | 0.00 | 0.08 | 0.08 | 85 | 1012.6 |
| 20260506201021 | 19 | 135 | 0.0 | 0.0 | 0.00 | 0.08 | 0.08 | 85 | 1012.6 |
| 20260506200920 | 19 | 189 | 0.0 | 0.0 | 0.00 | 0.08 | 0.08 | 85 | 1012.6 |
| 20260506200821 | 19 | 136 | 0.0 | 0.0 | 0.00 | 0.08 | 0.08 | 85 | 1012.5 |
| 20260506200717 | 19 | 170 | 0.0 | 0.0 | 0.00 | 0.08 | 0.08 | 86 | 1012.6 |
| 20260506200615 | 19 | 178 | 0.0 | 0.0 | 0.00 | 0.08 | 0.08 | 86 | 1012.6 |
| 20260506200513 | 19 | 229 | 0.0 | 0.0 | 0.00 | 0.08 | 0.08 | 86 | 1012.6 |
| 20260506200414 | 19 | 182 | 0.0 | 0.0 | 0.00 | 0.08 | 0.08 | 86 | 1012.7 |
| 20260506200315 | 19 | 171 | 0.0 | 0.0 | 0.00 | 0.08 | 0.08 | 85 | 1012.8 |
| 20260506200211 | 19 | 218 | 0.0 | 0.0 | 0.00 | 0.08 | 0.08 | 85 | 1012.7 |
| 20260506200109 | 19 | 248 | 0.0 | 0.0 | 0.00 | 0.08 | 0.08 | 86 | 1012.7 |
| 20260506200010 | 19 | 175 | 0.0 | 0.0 | 0.00 | 0.08 | 0.08 | 86 | 1012.7 |
| 20260506195907 | 19 | 164 | 0.0 | 0.0 | 0.00 | 0.08 | 0.08 | 86 | 1012.7 |
| 20260506195808 | 19 | 203 | 0.0 | 0.0 | 0.00 | 0.08 | 0.08 | 86 | 1012.8 |
| 20260506195701 | 19 | 218 | 0.0 | 0.0 | 0.00 | 0.08 | 0.08 | 86 | 1012.7 |
| 20260506195558 | 19 | 207 | 0.0 | 0.0 | 0.00 | 0.08 | 0.08 | 85 | 1012.8 |
| 20260506195459 | 19 | 163 | 0.0 | 0.0 | 0.00 | 0.08 | 0.08 | 85 | 1012.8 |
| 20260506195358 | 19 | 271 | 0.0 | 0.0 | 0.00 | 0.08 | 0.08 | 85 | 1012.9 |
| 20260506195258 | 19 | 155 | 0.0 | 0.0 | 0.00 | 0.08 | 0.08 | 86 | 1013.0 |
| 20260506195152 | 19 | 151 | 0.0 | 0.0 | 0.00 | 0.08 | 0.08 | 86 | 1013.1 |
| 20260506195052 | 19 | 156 | 0.0 | 0.0 | 0.00 | 0.08 | 0.08 | 86 | 1013.1 |
| 20260506194953 | 19 | 57 | 0.0 | 0.0 | 0.00 | 0.08 | 0.08 | 86 | 1013.2 |
| 20260506194852 | 19 | 178 | 0.0 | 0.0 | 0.00 | 0.08 | 0.08 | 86 | 1013.1 |
| 20260506194753 | 19 | 166 | 0.0 | 0.0 | 0.00 | 0.08 | 0.08 | 87 | 1013.1 |
| 20260506194649 | 19 | 149 | 0.0 | 0.0 | 0.00 | 0.08 | 0.08 | 86 | 1013.0 |
| 20260506194548 | 19 | 322 | 0.0 | 0.0 | 0.00 | 0.08 | 0.08 | 86 | 1013.0 |
| 20260506194447 | 19 | 130 | 0.0 | 0.0 | 0.00 | 0.08 | 0.08 | 87 | 1013.0 |
| 20260506194349 | 19 | 131 | 0.0 | 0.0 | 0.00 | 0.08 | 0.08 | 86 | 1012.9 |
| 20260506194246 | 19 | 194 | 0.0 | 0.0 | 0.00 | 0.08 | 0.08 | 87 | 1012.9 |
| 20260506194139 | 19 | 192 | 0.0 | 0.0 | 0.00 | 0.08 | 0.08 | 87 | 1012.9 |
| 20260506194036 | 19 | 150 | 0.0 | 0.0 | 0.00 | 0.08 | 0.08 | 87 | 1012.9 |
| 20260506193937 | 19 | 180 | 0.0 | 0.0 | 0.00 | 0.08 | 0.08 | 87 | 1013.0 |
| 20260506193836 | 19 | 142 | 0.0 | 0.0 | 0.00 | 0.08 | 0.08 | 87 | 1012.9 |
| 20260506193737 | 18 | 150 | 0.0 | 0.0 | 0.00 | 0.08 | 0.08 | 87 | 1012.9 |
| 20260506193634 | 19 | 166 | 0.0 | 0.0 | 0.00 | 0.08 | 0.08 | 87 | 1012.9 |
| 20260506193534 | 19 | 147 | 0.0 | 0.0 | 0.00 | 0.08 | 0.08 | 87 | 1012.8 |
| 20260506193436 | 18 | 146 | 0.0 | 0.0 | 0.00 | 0.08 | 0.08 | 87 | 1012.8 |
| 20260506193332 | 18 | 134 | 0.0 | 0.0 | 0.00 | 0.08 | 0.08 | 87 | 1012.8 |
| 20260506193230 | 18 | 180 | 0.0 | 0.0 | 0.00 | 0.08 | 0.08 | 87 | 1012.6 |
| 20260506193129 | 18 | 136 | 0.0 | 0.0 | 0.00 | 0.08 | 0.08 | 87 | 1012.7 |
| 20260506193029 | 18 | 178 | 0.0 | 0.0 | 0.00 | 0.08 | 0.08 | 86 | 1012.6 |
| 20260506192928 | 18 | 202 | 0.0 | 0.0 | 0.00 | 0.08 | 0.08 | 87 | 1012.6 |
| 20260506192826 | 18 | 137 | 0.0 | 0.0 | 0.00 | 0.08 | 0.08 | 86 | 1012.6 |
| 20260506192725 | 18 | 161 | 0.0 | 0.0 | 0.00 | 0.08 | 0.08 | 86 | 1012.6 |
| 20260506192615 | 18 | 165 | 0.0 | 0.0 | 0.00 | 0.08 | 0.08 | 86 | 1012.6 |
| 20260506192514 | 18 | 195 | 0.0 | 0.0 | 0.00 | 0.08 | 0.08 | 86 | 1012.7 |
| 20260506192414 | 18 | 123 | 0.0 | 0.0 | 0.00 | 0.08 | 0.08 | 86 | 1012.6 |
| 20260506192315 | 18 | 24 | 0.0 | 0.0 | 0.00 | 0.08 | 0.08 | 86 | 1012.5 |
| 20260506192215 | 18 | 155 | 0.0 | 0.0 | 0.00 | 0.08 | 0.08 | 86 | 1012.5 |
| 20260506192107 | 18 | 198 | 0.0 | 0.0 | 0.00 | 0.08 | 0.08 | 86 | 1012.5 |
| 20260506192008 | 18 | 150 | 0.0 | 0.0 | 0.00 | 0.08 | 0.08 | 87 | 1012.6 |
| 20260506191909 | 18 | 313 | 0.0 | 0.0 | 0.00 | 0.08 | 0.08 | 86 | 1012.6 |
| 20260506191809 | 18 | 149 | 0.0 | 0.0 | 0.00 | 0.08 | 0.08 | 86 | 1012.5 |
| 20260506191709 | 18 | 180 | 0.0 | 0.0 | 0.00 | 0.08 | 0.08 | 86 | 1012.4 |
| 20260506191603 | 18 | 144 | 0.0 | 0.0 | 0.00 | 0.08 | 0.08 | 86 | 1012.4 |
| 20260506191502 | 18 | 155 | 0.0 | 0.0 | 0.00 | 0.08 | 0.08 | 86 | 1012.4 |
| 20260506191402 | 18 | 127 | 0.0 | 0.0 | 0.00 | 0.08 | 0.08 | 86 | 1012.4 |
| 20260506191302 | 18 | 142 | 0.0 | 0.0 | 0.00 | 0.08 | 0.08 | 85 | 1012.5 |
| 20260506191202 | 18 | 178 | 0.0 | 0.0 | 0.00 | 0.08 | 0.08 | 85 | 1012.4 |
| 20260506191052 | 18 | 149 | 0.0 | 0.0 | 0.00 | 0.08 | 0.08 | 85 | 1012.5 |
| 20260506190953 | 18 | 90 | 0.0 | 0.0 | 0.00 | 0.08 | 0.08 | 86 | 1012.6 |
| 20260506190852 | 18 | 193 | 0.0 | 0.0 | 0.00 | 0.08 | 0.08 | 86 | 1012.7 |
| 20260506190752 | 18 | 173 | 0.0 | 0.0 | 0.00 | 0.08 | 0.08 | 86 | 1012.8 |
| 20260506190653 | 18 | 158 | 0.0 | 0.0 | 0.00 | 0.08 | 0.08 | 86 | 1012.8 |
| 20260506190549 | 18 | 101 | 0.0 | 0.0 | 0.00 | 0.08 | 0.08 | 86 | 1012.9 |
| 20260506190448 | 18 | 139 | 0.0 | 0.0 | 0.00 | 0.08 | 0.08 | 86 | 1012.9 |
| 20260506190347 | 18 | 184 | 0.0 | 0.0 | 0.00 | 0.08 | 0.08 | 87 | 1012.9 |
| 20260506190249 | 18 | 177 | 0.0 | 0.0 | 0.00 | 0.08 | 0.08 | 86 | 1012.9 |
| 20260506190146 | 18 | 221 | 0.0 | 0.0 | 0.00 | 0.08 | 0.08 | 87 | 1012.9 |
| 20260506190043 | 18 | 131 | 0.0 | 0.0 | 0.00 | 0.08 | 0.08 | 87 | 1012.9 |
| 20260506185939 | 18 | 196 | 0.0 | 0.0 | 0.00 | 0.08 | 0.08 | 87 | 1012.9 |
| 20260506185841 | 18 | 157 | 0.0 | 0.0 | 0.00 | 0.08 | 0.08 | 87 | 1012.9 |
| 20260506185741 | 18 | 120 | 0.0 | 0.0 | 0.00 | 0.08 | 0.08 | 87 | 1012.8 |
| 20260506185641 | 18 | 144 | 0.0 | 0.0 | 0.00 | 0.08 | 0.08 | 87 | 1012.6 |
| 20260506185531 | 18 | 166 | 0.0 | 0.0 | 0.00 | 0.08 | 0.08 | 87 | 1012.7 |
| 20260506185430 | 18 | 133 | 0.0 | 0.0 | 0.00 | 0.08 | 0.08 | 87 | 1012.7 |
| 20260506185331 | 18 | 170 | 0.0 | 0.0 | 0.00 | 0.08 | 0.08 | 87 | 1012.7 |
| 20260506185229 | 18 | 146 | 0.0 | 0.0 | 0.00 | 0.08 | 0.08 | 88 | 1012.6 |
| 20260506185131 | 18 | 150 | 0.0 | 0.0 | 0.00 | 0.08 | 0.08 | 88 | 1012.6 |
| 20260506185027 | 18 | 138 | 0.0 | 0.0 | 0.00 | 0.08 | 0.08 | 88 | 1012.6 |
| 20260506184925 | 18 | 171 | 0.0 | 0.0 | 0.00 | 0.08 | 0.08 | 88 | 1012.6 |
| 20260506184824 | 18 | 171 | 0.0 | 0.0 | 0.00 | 0.08 | 0.08 | 87 | 1012.6 |
| 20260506184723 | 18 | 157 | 0.0 | 0.0 | 0.00 | 0.08 | 0.08 | 87 | 1012.6 |
| 20260506184625 | 18 | 158 | 0.0 | 1.6 | 0.00 | 0.08 | 0.08 | 88 | 1012.6 |
| 20260506184519 | 18 | 175 | 0.0 | 1.6 | 0.00 | 0.08 | 0.08 | 88 | 1012.5 |
| 20260506184418 | 18 | 146 | 0.0 | 8.0 | 0.00 | 0.08 | 0.08 | 87 | 1012.5 |
| 20260506184318 | 18 | 192 | 0.0 | 8.0 | 0.00 | 0.08 | 0.08 | 88 | 1012.5 |
| 20260506184217 | 18 | 178 | 0.0 | 8.0 | 0.00 | 0.08 | 0.08 | 88 | 1012.6 |
| 20260506184119 | 18 | 164 | 0.0 | 8.0 | 0.00 | 0.08 | 0.08 | 88 | 1012.4 |
| 20260506184008 | 18 | 131 | 0.0 | 8.0 | 0.00 | 0.08 | 0.08 | 88 | 1012.4 |
| 20260506183908 | 18 | 148 | 0.0 | 8.0 | 0.00 | 0.08 | 0.08 | 88 | 1012.5 |
| 20260506183809 | 18 | 138 | 0.0 | 8.0 | 0.00 | 0.08 | 0.08 | 88 | 1012.5 |
| 20260506183709 | 18 | 210 | 0.0 | 8.0 | 0.00 | 0.08 | 0.08 | 89 | 1012.5 |
| 20260506183608 | 18 | 111 | 0.0 | 8.0 | 0.00 | 0.08 | 0.08 | 89 | 1012.5 |
| 20260506183503 | 18 | 180 | 0.0 | 8.0 | 0.00 | 0.08 | 0.08 | 88 | 1012.5 |
| 20260506183402 | 18 | 168 | 0.0 | 4.8 | 0.00 | 0.08 | 0.08 | 88 | 1012.4 |
| 20260506183303 | 18 | 110 | 0.0 | 4.8 | 0.00 | 0.08 | 0.08 | 88 | 1012.5 |
| 20260506183202 | 18 | 183 | 0.0 | 4.8 | 0.00 | 0.08 | 0.08 | 88 | 1012.5 |
| 20260506183103 | 18 | 169 | 0.0 | 4.8 | 0.00 | 0.08 | 0.08 | 88 | 1012.5 |
| 20260506182958 | 18 | 183 | 0.0 | 4.8 | 0.00 | 0.08 | 0.08 | 88 | 1012.5 |
| 20260506182855 | 18 | 205 | 0.0 | 4.8 | 0.00 | 0.08 | 0.08 | 88 | 1012.6 |
| 20260506182756 | 18 | 146 | 0.0 | 4.8 | 0.00 | 0.08 | 0.08 | 88 | 1012.6 |
| 20260506182656 | 18 | 126 | 0.0 | 4.8 | 0.00 | 0.08 | 0.08 | 88 | 1012.5 |
| 20260506182557 | 18 | 178 | 0.0 | 4.8 | 0.00 | 0.08 | 0.08 | 87 | 1012.7 |
| 20260506182447 | 18 | 187 | 0.0 | 3.2 | 0.00 | 0.08 | 0.08 | 87 | 1012.6 |
| 20260506182346 | 18 | 267 | 0.0 | 3.2 | 0.00 | 0.08 | 0.08 | 87 | 1012.6 |
| 20260506182246 | 18 | 207 | 0.0 | 3.2 | 0.00 | 0.08 | 0.08 | 88 | 1012.5 |
| 20260506182146 | 18 | 159 | 0.0 | 3.2 | 0.00 | 0.08 | 0.08 | 88 | 1012.5 |
| 20260506182046 | 18 | 184 | 0.0 | 3.2 | 0.00 | 0.08 | 0.08 | 88 | 1012.5 |
| 20260506181939 | 18 | 203 | 0.0 | 3.2 | 0.00 | 0.08 | 0.08 | 88 | 1012.6 |
| 20260506181841 | 18 | 136 | 0.0 | 3.2 | 0.00 | 0.08 | 0.08 | 87 | 1012.7 |
| 20260506181739 | 18 | 152 | 0.0 | 1.6 | 0.00 | 0.08 | 0.08 | 87 | 1012.7 |
| 20260506181641 | 18 | 152 | 0.0 | 1.6 | 0.00 | 0.08 | 0.08 | 87 | 1012.7 |
| 20260506181541 | 18 | 146 | 0.0 | 1.6 | 0.00 | 0.08 | 0.08 | 87 | 1012.6 |
| 20260506181433 | 18 | 146 | 0.0 | 1.6 | 0.00 | 0.08 | 0.08 | 87 | 1012.8 |
| 20260506181334 | 18 | 138 | 0.0 | 1.6 | 0.00 | 0.08 | 0.08 | 87 | 1012.8 |
| 20260506181233 | 18 | 163 | 0.0 | 1.6 | 0.00 | 0.08 | 0.08 | 87 | 1012.8 |
| 20260506181135 | 18 | 169 | 0.0 | 1.6 | 0.00 | 0.08 | 0.08 | 87 | 1012.8 |
| 20260506181035 | 18 | 139 | 0.0 | 1.6 | 0.03 | 0.08 | 0.08 | 87 | 1012.8 |
| 20260506180931 | 18 | 139 | 0.0 | 1.6 | 0.03 | 0.08 | 0.08 | 87 | 1012.8 |
| 20260506180827 | 18 | 132 | 0.0 | 0.0 | 0.03 | 0.08 | 0.08 | 87 | 1012.9 |